Wetterstion Hohenwalde 74m ?ber NN
Wetterdaten: Mittwoch / Donnerstag, 25.04.2024
Datum Zeit Temp. A. 5cm TDach Feuchte A. Luftdruck Regen Wind Richtung Richtung Sonnenschein Solar Taupunkt Windb?en
24.04.2024 11:00 9,2 ?C 13,3 ?C 12,6 ?C 51 % 1006,9 hPa 0,0 l/m? 4,9 km/h (1 Bft) SW 224 ? 0 min 127 W/m? -0,4 ?C 8,0 km/h (2 Bft)
24.04.2024 11:03 9,2 ?C 13,1 ?C 12,4 ?C 53 % 1006,9 hPa 0,0 l/m? 3,1 km/h (1 Bft) SW 218 ? 0 min 134 W/m? 0,1 ?C 6,4 km/h (2 Bft)
24.04.2024 11:06 9,2 ?C 13,2 ?C 12,2 ?C 52 % 1006,9 hPa 0,0 l/m? 4,0 km/h (1 Bft) SW 217 ? 0 min 135 W/m? -0,1 ?C 8,0 km/h (2 Bft)
24.04.2024 11:09 9,1 ?C 12,9 ?C 12,3 ?C 53 % 1006,9 hPa 0,0 l/m? 3,6 km/h (1 Bft) SW 234 ? 0 min 144 W/m? 0,0 ?C 8,0 km/h (2 Bft)
24.04.2024 11:12 9,2 ?C 13,0 ?C 12,4 ?C 52 % 1006,8 hPa 0,0 l/m? 3,5 km/h (1 Bft) S-SW 212 ? 0 min 146 W/m? -0,1 ?C 6,4 km/h (2 Bft)
24.04.2024 11:15 9,2 ?C 13,2 ?C 12,6 ?C 53 % 1006,8 hPa 0,0 l/m? 2,5 km/h (1 Bft) S-SW 210 ? 0 min 131 W/m? 0,1 ?C 4,8 km/h (1 Bft)
24.04.2024 11:18 9,3 ?C 13,0 ?C 12,8 ?C 54 % 1006,7 hPa 0,0 l/m? 3,5 km/h (1 Bft) SW 218 ? 0 min 113 W/m? 0,5 ?C 6,4 km/h (2 Bft)
24.04.2024 11:21 9,3 ?C 12,5 ?C 12,2 ?C 53 % 1006,7 hPa 0,0 l/m? 3,2 km/h (1 Bft) S 182 ? 0 min 125 W/m? 0,2 ?C 4,8 km/h (1 Bft)
24.04.2024 11:24 9,3 ?C 12,4 ?C 12,9 ?C 52 % 1006,7 hPa 0,0 l/m? 4,0 km/h (1 Bft) S-SO 164 ? 3 min 446 W/m? -0,0 ?C 8,0 km/h (2 Bft)
24.04.2024 11:27 9,8 ?C 14,0 ?C 17,2 ?C 52 % 1006,7 hPa 0,0 l/m? 3,3 km/h (1 Bft) O-SO 115 ? 3 min 631 W/m? 0,4 ?C 8,0 km/h (2 Bft)
24.04.2024 11:30 10,6 ?C 15,4 ?C 17,3 ?C 51 % 1006,6 hPa 0,0 l/m? 5,3 km/h (1 Bft) O-SO 102 ? 3 min 695 W/m? 0,9 ?C 9,7 km/h (2 Bft)
24.04.2024 11:33 11,0 ?C 15,9 ?C 17,6 ?C 49 % 1006,5 hPa 0,0 l/m? 6,3 km/h (2 Bft) O-SO 106 ? 3 min 758 W/m? 0,7 ?C 12,9 km/h (3 Bft)
24.04.2024 11:36 11,3 ?C 16,1 ?C 16,2 ?C 46 % 1006,5 hPa 0,0 l/m? 6,6 km/h (2 Bft) SO 141 ? 3 min 740 W/m? 0,1 ?C 11,3 km/h (2 Bft)
24.04.2024 11:39 11,1 ?C 15,8 ?C 20,1 ?C 47 % 1006,5 hPa 0,0 l/m? 3,0 km/h (1 Bft) S 170 ? 3 min 763 W/m? 0,2 ?C 6,4 km/h (2 Bft)
24.04.2024 11:42 11,3 ?C 15,9 ?C 17,3 ?C 46 % 1006,5 hPa 0,0 l/m? 9,3 km/h (2 Bft) S-SO 157 ? 3 min 747 W/m? 0,1 ?C 17,7 km/h (3 Bft)
24.04.2024 11:45 11,1 ?C 16,9 ?C 13,2 ?C 45 % 1006,5 hPa 0,0 l/m? 8,1 km/h (2 Bft) S 169 ? 0 min 229 W/m? -0,4 ?C 12,9 km/h (3 Bft)
24.04.2024 11:48 10,7 ?C 14,9 ?C 12,0 ?C 47 % 1006,5 hPa 0,0 l/m? 5,5 km/h (2 Bft) SO 127 ? 0 min 200 W/m? -0,1 ?C 9,7 km/h (2 Bft)
24.04.2024 11:51 10,3 ?C 14,4 ?C 11,4 ?C 48 % 1006,5 hPa 0,0 l/m? 7,7 km/h (2 Bft) O-SO 123 ? 0 min 172 W/m? -0,2 ?C 12,9 km/h (3 Bft)
24.04.2024 11:54 10,1 ?C 13,7 ?C 11,4 ?C 48 % 1006,5 hPa 0,0 l/m? 5,8 km/h (2 Bft) O-SO 122 ? 0 min 151 W/m? -0,4 ?C 8,0 km/h (2 Bft)
24.04.2024 11:57 9,9 ?C 13,2 ?C 11,2 ?C 49 % 1006,5 hPa 0,0 l/m? 7,2 km/h (2 Bft) O-SO 122 ? 0 min 143 W/m? -0,3 ?C 12,9 km/h (3 Bft)
24.04.2024 12:00 9,9 ?C 12,9 ?C 10,9 ?C 49 % 1006,5 hPa 0,0 l/m? 6,0 km/h (2 Bft) SO 134 ? 0 min 151 W/m? -0,3 ?C 9,7 km/h (2 Bft)
24.04.2024 12:03 9,8 ?C 12,6 ?C 11,2 ?C 49 % 1006,5 hPa 0,0 l/m? 6,3 km/h (2 Bft) O-SO 113 ? 0 min 166 W/m? -0,4 ?C 11,3 km/h (2 Bft)
24.04.2024 12:06 9,8 ?C 12,7 ?C 11,4 ?C 50 % 1006,4 hPa 0,0 l/m? 6,2 km/h (2 Bft) O-SO 111 ? 0 min 186 W/m? -0,1 ?C 11,3 km/h (2 Bft)
24.04.2024 12:09 9,9 ?C 12,9 ?C 11,8 ?C 50 % 1006,4 hPa 0,0 l/m? 5,1 km/h (1 Bft) O 101 ? 0 min 210 W/m? -0,0 ?C 9,7 km/h (2 Bft)
24.04.2024 12:12 10,0 ?C 13,2 ?C 11,7 ?C 49 % 1006,4 hPa 0,0 l/m? 7,8 km/h (2 Bft) O-SO 110 ? 0 min 261 W/m? -0,2 ?C 12,9 km/h (3 Bft)
24.04.2024 12:15 10,0 ?C 14,0 ?C 12,4 ?C 50 % 1006,4 hPa 0,0 l/m? 6,9 km/h (2 Bft) O-SO 115 ? 0 min 308 W/m? 0,1 ?C 12,9 km/h (3 Bft)
24.04.2024 12:18 10,3 ?C 14,9 ?C 13,0 ?C 51 % 1006,3 hPa 0,0 l/m? 6,2 km/h (2 Bft) O-SO 109 ? 0 min 335 W/m? 0,6 ?C 12,9 km/h (3 Bft)
24.04.2024 12:21 10,4 ?C 15,7 ?C 13,1 ?C 50 % 1006,3 hPa 0,0 l/m? 8,5 km/h (2 Bft) O 98 ? 0 min 332 W/m? 0,4 ?C 12,9 km/h (3 Bft)
24.04.2024 12:24 10,6 ?C 16,0 ?C 12,3 ?C 46 % 1006,3 hPa 0,0 l/m? 8,7 km/h (2 Bft) SO 126 ? 0 min 291 W/m? -0,5 ?C 16,1 km/h (3 Bft)
24.04.2024 12:27 10,4 ?C 15,7 ?C 12,7 ?C 47 % 1006,2 hPa 0,0 l/m? 6,0 km/h (2 Bft) SO 135 ? 0 min 264 W/m? -0,4 ?C 11,3 km/h (2 Bft)
24.04.2024 12:30 10,4 ?C 14,8 ?C 12,3 ?C 47 % 1006,1 hPa 0,0 l/m? 8,3 km/h (2 Bft) O-SO 120 ? 0 min 236 W/m? -0,4 ?C 14,5 km/h (3 Bft)
24.04.2024 12:33 10,4 ?C 14,5 ?C 12,2 ?C 47 % 1006,2 hPa 0,0 l/m? 8,8 km/h (2 Bft) O-NO 76 ? 0 min 213 W/m? -0,4 ?C 14,5 km/h (3 Bft)
24.04.2024 12:36 10,4 ?C 14,4 ?C 12,5 ?C 48 % 1006,1 hPa 0,0 l/m? 6,1 km/h (2 Bft) O-SO 115 ? 0 min 201 W/m? -0,1 ?C 11,3 km/h (2 Bft)
24.04.2024 12:39 10,3 ?C 13,5 ?C 11,9 ?C 45 % 1006,1 hPa 0,0 l/m? 8,7 km/h (2 Bft) S-SO 164 ? 0 min 193 W/m? -1,1 ?C 14,5 km/h (3 Bft)
24.04.2024 12:42 10,1 ?C 13,6 ?C 12,0 ?C 47 % 1006,1 hPa 0,0 l/m? 4,6 km/h (1 Bft) SO 139 ? 0 min 195 W/m? -0,7 ?C 6,4 km/h (2 Bft)
24.04.2024 12:45 10,2 ?C 13,9 ?C 12,8 ?C 48 % 1006,1 hPa 0,0 l/m? 4,2 km/h (1 Bft) O 101 ? 0 min 219 W/m? -0,3 ?C 8,0 km/h (2 Bft)
24.04.2024 12:48 10,2 ?C 13,7 ?C 12,4 ?C 46 % 1006,1 hPa 0,0 l/m? 7,0 km/h (2 Bft) O-NO 66 ? 0 min 265 W/m? -0,9 ?C 12,9 km/h (3 Bft)
24.04.2024 12:51 10,3 ?C 14,1 ?C 12,3 ?C 48 % 1006,1 hPa 0,0 l/m? 8,9 km/h (2 Bft) O-SO 110 ? 0 min 335 W/m? -0,2 ?C 14,5 km/h (3 Bft)
24.04.2024 12:54 10,5 ?C 15,9 ?C 13,6 ?C 47 % 1006,1 hPa 0,0 l/m? 6,4 km/h (2 Bft) O-SO 104 ? 3 min 588 W/m? -0,3 ?C 12,9 km/h (3 Bft)
24.04.2024 12:57 10,9 ?C 18,6 ?C 16,0 ?C 48 % 1006,0 hPa 0,0 l/m? 4,4 km/h (1 Bft) O-SO 107 ? 3 min 672 W/m? 0,3 ?C 9,7 km/h (2 Bft)
24.04.2024 13:00 11,3 ?C 18,6 ?C 14,9 ?C 45 % 1005,9 hPa 0,0 l/m? 4,3 km/h (1 Bft) O-NO 75 ? 0 min 399 W/m? -0,2 ?C 9,7 km/h (2 Bft)
24.04.2024 13:03 11,2 ?C 17,3 ?C 13,9 ?C 46 % 1005,9 hPa 0,0 l/m? 4,5 km/h (1 Bft) O 84 ? 0 min 339 W/m? 0,0 ?C 6,4 km/h (2 Bft)
24.04.2024 13:06 11,1 ?C 16,7 ?C 13,3 ?C 46 % 1005,8 hPa 0,0 l/m? 6,5 km/h (2 Bft) SO 130 ? 0 min 289 W/m? -0,1 ?C 11,3 km/h (2 Bft)
24.04.2024 13:09 10,9 ?C 16,1 ?C 13,3 ?C 45 % 1005,8 hPa 0,0 l/m? 6,9 km/h (2 Bft) O 96 ? 0 min 261 W/m? -0,6 ?C 11,3 km/h (2 Bft)
24.04.2024 13:12 10,8 ?C 15,4 ?C 12,8 ?C 45 % 1005,8 hPa 0,0 l/m? 9,7 km/h (2 Bft) S-SO 150 ? 0 min 275 W/m? -0,6 ?C 17,7 km/h (3 Bft)
24.04.2024 13:15 10,8 ?C 14,7 ?C 12,5 ?C 46 % 1005,9 hPa 0,0 l/m? 9,4 km/h (2 Bft) S-SO 153 ? 0 min 241 W/m? -0,3 ?C 16,1 km/h (3 Bft)
24.04.2024 13:18 10,7 ?C 14,4 ?C 11,9 ?C 46 % 1005,8 hPa 0,0 l/m? 9,0 km/h (2 Bft) SO 134 ? 0 min 216 W/m? -0,4 ?C 16,1 km/h (3 Bft)
24.04.2024 13:21 10,5 ?C 14,3 ?C 12,4 ?C 46 % 1005,8 hPa 0,0 l/m? 6,7 km/h (2 Bft) S-SO 154 ? 0 min 212 W/m? -0,6 ?C 19,3 km/h (3 Bft)
24.04.2024 13:24 10,4 ?C 14,1 ?C 11,9 ?C 46 % 1005,8 hPa 0,0 l/m? 10,5 km/h (2 Bft) S 170 ? 0 min 221 W/m? -0,7 ?C 14,5 km/h (3 Bft)
24.04.2024 13:27 10,3 ?C 14,0 ?C 12,0 ?C 46 % 1005,8 hPa 0,0 l/m? 10,2 km/h (2 Bft) S 183 ? 0 min 216 W/m? -0,8 ?C 17,7 km/h (3 Bft)
24.04.2024 13:30 10,3 ?C 14,3 ?C 13,1 ?C 47 % 1005,8 hPa 0,0 l/m? 6,4 km/h (2 Bft) SW 218 ? 0 min 199 W/m? -0,5 ?C 12,9 km/h (3 Bft)
24.04.2024 13:33 10,4 ?C 14,3 ?C 13,1 ?C 47 % 1005,8 hPa 0,0 l/m? 7,9 km/h (2 Bft) S-SW 210 ? 0 min 181 W/m? -0,4 ?C 14,5 km/h (3 Bft)
24.04.2024 13:36 10,4 ?C 14,4 ?C 13,0 ?C 46 % 1005,8 hPa 0,0 l/m? 7,0 km/h (2 Bft) W-SW 241 ? 0 min 175 W/m? -0,7 ?C 12,9 km/h (3 Bft)
24.04.2024 13:39 10,3 ?C 14,2 ?C 13,5 ?C 46 % 1005,8 hPa 0,0 l/m? 2,4 km/h (1 Bft) W-SW 254 ? 0 min 169 W/m? -0,8 ?C 8,0 km/h (2 Bft)
24.04.2024 13:42 10,3 ?C 14,0 ?C 13,3 ?C 46 % 1005,7 hPa 0,0 l/m? 5,0 km/h (1 Bft) SW 225 ? 0 min 153 W/m? -0,8 ?C 6,4 km/h (2 Bft)
24.04.2024 13:45 10,2 ?C 14,0 ?C 13,4 ?C 44 % 1005,7 hPa 0,0 l/m? 3,5 km/h (1 Bft) W-SW 241 ? 0 min 144 W/m? -1,5 ?C 4,8 km/h (1 Bft)
24.04.2024 13:48 10,1 ?C 13,7 ?C 13,2 ?C 45 % 1005,7 hPa 0,0 l/m? 3,2 km/h (1 Bft) S-SW 198 ? 0 min 147 W/m? -1,3 ?C 4,8 km/h (1 Bft)
24.04.2024 13:51 10,2 ?C 13,3 ?C 13,2 ?C 47 % 1005,7 hPa 0,0 l/m? 4,8 km/h (1 Bft) SW 217 ? 0 min 162 W/m? -0,6 ?C 11,3 km/h (2 Bft)
24.04.2024 13:54 10,2 ?C 13,1 ?C 12,6 ?C 48 % 1005,7 hPa 0,0 l/m? 8,2 km/h (2 Bft) SW 214 ? 0 min 187 W/m? -0,3 ?C 17,7 km/h (3 Bft)
24.04.2024 13:57 10,2 ?C 13,3 ?C 12,9 ?C 48 % 1005,7 hPa 0,0 l/m? 4,3 km/h (1 Bft) S-SW 195 ? 0 min 217 W/m? -0,3 ?C 8,0 km/h (2 Bft)
24.04.2024 14:00 10,3 ?C 13,6 ?C 12,5 ?C 48 % 1005,7 hPa 0,0 l/m? 6,7 km/h (2 Bft) S-SO 164 ? 0 min 243 W/m? -0,2 ?C 12,9 km/h (3 Bft)
24.04.2024 14:03 10,4 ?C 13,8 ?C 12,6 ?C 48 % 1005,7 hPa 0,0 l/m? 6,0 km/h (2 Bft) S 177 ? 0 min 264 W/m? -0,1 ?C 12,9 km/h (3 Bft)
24.04.2024 14:06 10,4 ?C 14,0 ?C 12,4 ?C 47 % 1005,7 hPa 0,0 l/m? 7,8 km/h (2 Bft) S-SO 152 ? 0 min 299 W/m? -0,4 ?C 16,1 km/h (3 Bft)
24.04.2024 14:09 10,4 ?C 13,9 ?C 11,7 ?C 47 % 1005,6 hPa 0,0 l/m? 13,8 km/h (3 Bft) SO 128 ? 0 min 311 W/m? -0,4 ?C 19,3 km/h (3 Bft)
24.04.2024 14:12 10,4 ?C 14,1 ?C 12,2 ?C 46 % 1005,6 hPa 0,0 l/m? 7,2 km/h (2 Bft) SO 139 ? 0 min 325 W/m? -0,7 ?C 14,5 km/h (3 Bft)
24.04.2024 14:15 10,4 ?C 14,6 ?C 12,8 ?C 46 % 1005,6 hPa 0,0 l/m? 5,4 km/h (2 Bft) O-SO 105 ? 0 min 336 W/m? -0,7 ?C 11,3 km/h (2 Bft)
24.04.2024 14:18 10,5 ?C 14,8 ?C 13,1 ?C 47 % 1005,6 hPa 0,0 l/m? 6,4 km/h (2 Bft) O-SO 119 ? 0 min 371 W/m? -0,3 ?C 12,9 km/h (3 Bft)
24.04.2024 14:21 10,9 ?C 14,9 ?C 12,9 ?C 47 % 1005,5 hPa 0,0 l/m? 7,2 km/h (2 Bft) SO 145 ? 0 min 367 W/m? 0,0 ?C 9,7 km/h (2 Bft)
24.04.2024 14:24 11,0 ?C 15,3 ?C 14,4 ?C 46 % 1005,5 hPa 0,0 l/m? 5,4 km/h (2 Bft) SW 236 ? 0 min 336 W/m? -0,2 ?C 12,9 km/h (3 Bft)
24.04.2024 14:27 11,0 ?C 15,4 ?C 14,3 ?C 46 % 1005,5 hPa 0,0 l/m? 5,8 km/h (2 Bft) W 263 ? 0 min 295 W/m? -0,2 ?C 11,3 km/h (2 Bft)
24.04.2024 14:30 10,9 ?C 15,0 ?C 14,1 ?C 45 % 1005,5 hPa 0,0 l/m? 3,9 km/h (1 Bft) W 269 ? 0 min 266 W/m? -0,6 ?C 12,9 km/h (3 Bft)
24.04.2024 14:33 10,7 ?C 14,7 ?C 14,7 ?C 47 % 1005,5 hPa 0,0 l/m? 2,5 km/h (1 Bft) W-SW 243 ? 0 min 259 W/m? -0,1 ?C 4,8 km/h (1 Bft)
24.04.2024 14:36 10,8 ?C 14,1 ?C 13,3 ?C 47 % 1005,5 hPa 0,0 l/m? 8,0 km/h (2 Bft) S-SO 156 ? 0 min 225 W/m? -0,1 ?C 22,5 km/h (4 Bft)
24.04.2024 14:39 10,7 ?C 13,2 ?C 11,6 ?C 47 % 1005,6 hPa 0,0 l/m? 9,7 km/h (2 Bft) S 174 ? 0 min 213 W/m? -0,1 ?C 17,7 km/h (3 Bft)
24.04.2024 14:42 10,5 ?C 13,4 ?C 11,9 ?C 48 % 1005,5 hPa 0,0 l/m? 6,9 km/h (2 Bft) S 181 ? 0 min 228 W/m? -0,0 ?C 12,9 km/h (3 Bft)
24.04.2024 14:45 10,4 ?C 13,4 ?C 11,7 ?C 47 % 1005,5 hPa 0,0 l/m? 7,5 km/h (2 Bft) S-SO 162 ? 0 min 231 W/m? -0,4 ?C 16,1 km/h (3 Bft)
24.04.2024 14:48 10,3 ?C 13,7 ?C 11,9 ?C 47 % 1005,5 hPa 0,0 l/m? 4,3 km/h (1 Bft) SO 146 ? 0 min 225 W/m? -0,5 ?C 11,3 km/h (2 Bft)
24.04.2024 14:51 10,3 ?C 14,0 ?C 12,3 ?C 46 % 1005,5 hPa 0,0 l/m? 2,8 km/h (1 Bft) S-SW 193 ? 0 min 224 W/m? -0,8 ?C 6,4 km/h (2 Bft)
24.04.2024 14:54 10,3 ?C 14,3 ?C 12,3 ?C 46 % 1005,5 hPa 0,0 l/m? 3,4 km/h (1 Bft) S-SO 159 ? 0 min 214 W/m? -0,8 ?C 6,4 km/h (2 Bft)
24.04.2024 14:57 10,3 ?C 13,6 ?C 12,2 ?C 47 % 1005,5 hPa 0,0 l/m? 3,0 km/h (1 Bft) S 170 ? 0 min 202 W/m? -0,5 ?C 6,4 km/h (2 Bft)
24.04.2024 15:00 10,4 ?C 13,9 ?C 13,1 ?C 51 % 1005,5 hPa 0,0 l/m? 5,7 km/h (2 Bft) W-SW 240 ? 0 min 199 W/m? 0,7 ?C 14,5 km/h (3 Bft)
24.04.2024 15:03 10,4 ?C 13,5 ?C 12,6 ?C 49 % 1005,4 hPa 0,0 l/m? 5,6 km/h (2 Bft) W-SW 245 ? 0 min 212 W/m? 0,2 ?C 14,5 km/h (3 Bft)
24.04.2024 15:06 10,3 ?C 13,7 ?C 13,0 ?C 50 % 1005,4 hPa 0,0 l/m? 6,5 km/h (2 Bft) W-SW 238 ? 0 min 214 W/m? 0,3 ?C 12,9 km/h (3 Bft)
24.04.2024 15:09 10,3 ?C 13,7 ?C 13,2 ?C 49 % 1005,5 hPa 0,0 l/m? 3,5 km/h (1 Bft) S-SW 211 ? 0 min 205 W/m? 0,1 ?C 8,0 km/h (2 Bft)
24.04.2024 15:12 10,2 ?C 14,0 ?C 14,0 ?C 49 % 1005,4 hPa 0,0 l/m? 0,4 km/h (0 Bft) SW 230 ? 0 min 186 W/m? -0,0 ?C 1,6 km/h (1 Bft)
24.04.2024 15:18 10,3 ?C 13,5 ?C 13,9 ?C 50 % 1005,4 hPa 0,0 l/m? 2,0 km/h (1 Bft) W-SW 252 ? 0 min 132 W/m? 0,3 ?C 4,8 km/h (1 Bft)
24.04.2024 15:21 10,3 ?C 13,3 ?C 14,1 ?C 51 % 1005,4 hPa 0,0 l/m? 0,4 km/h (0 Bft) W-SW 255 ? 0 min 125 W/m? 0,6 ?C 3,2 km/h (1 Bft)
24.04.2024 15:24 10,3 ?C 13,0 ?C 13,9 ?C 50 % 1005,3 hPa 0,0 l/m? 0,3 km/h (0 Bft) W-SW 257 ? 0 min 119 W/m? 0,3 ?C 1,6 km/h (1 Bft)
24.04.2024 15:27 10,2 ?C 12,7 ?C 12,7 ?C 49 % 1005,3 hPa 0,0 l/m? 2,0 km/h (1 Bft) S-SO 147 ? 0 min 115 W/m? -0,0 ?C 4,8 km/h (1 Bft)
24.04.2024 15:30 10,1 ?C 12,3 ?C 11,9 ?C 50 % 1005,3 hPa 0,0 l/m? 3,2 km/h (1 Bft) O-SO 108 ? 0 min 113 W/m? 0,2 ?C 4,8 km/h (1 Bft)
24.04.2024 15:33 9,9 ?C 12,1 ?C 11,8 ?C 49 % 1005,3 hPa 0,0 l/m? 1,5 km/h (1 Bft) O-SO 102 ? 0 min 103 W/m? -0,3 ?C 3,2 km/h (1 Bft)
24.04.2024 15:36 10,0 ?C 12,2 ?C 12,6 ?C 50 % 1005,3 hPa 0,0 l/m? 0,4 km/h (0 Bft) O 81 ? 0 min 85 W/m? 0,1 ?C 3,2 km/h (1 Bft)
24.04.2024 15:39 10,0 ?C 12,0 ?C 12,3 ?C 50 % 1005,3 hPa 0,0 l/m? 3,8 km/h (1 Bft) W 268 ? 0 min 77 W/m? 0,1 ?C 9,7 km/h (2 Bft)
24.04.2024 15:42 9,9 ?C 11,8 ?C 11,9 ?C 51 % 1005,3 hPa 0,0 l/m? 5,4 km/h (2 Bft) W-NW 302 ? 0 min 74 W/m? 0,2 ?C 9,7 km/h (2 Bft)
24.04.2024 15:45 9,8 ?C 11,5 ?C 11,6 ?C 53 % 1005,2 hPa 0,0 l/m? 4,5 km/h (1 Bft) W-NW 303 ? 0 min 69 W/m? 0,7 ?C 8,0 km/h (2 Bft)
24.04.2024 15:48 9,9 ?C 11,3 ?C 11,4 ?C 55 % 1005,2 hPa 0,0 l/m? 6,0 km/h (2 Bft) NW 318 ? 0 min 62 W/m? 1,3 ?C 11,3 km/h (2 Bft)
24.04.2024 15:51 9,8 ?C 11,1 ?C 11,1 ?C 55 % 1005,2 hPa 0,0 l/m? 6,1 km/h (2 Bft) NW 307 ? 0 min 57 W/m? 1,2 ?C 11,3 km/h (2 Bft)
24.04.2024 15:54 9,7 ?C 10,8 ?C 10,9 ?C 56 % 1005,2 hPa 0,0 l/m? 5,7 km/h (2 Bft) NW 323 ? 0 min 54 W/m? 1,4 ?C 11,3 km/h (2 Bft)
24.04.2024 15:57 9,6 ?C 10,6 ?C 10,8 ?C 58 % 1005,2 hPa 0,0 l/m? 5,1 km/h (1 Bft) NW 323 ? 0 min 54 W/m? 1,8 ?C 9,7 km/h (2 Bft)
24.04.2024 16:00 9,6 ?C 10,5 ?C 10,8 ?C 58 % 1005,2 hPa 0,0 l/m? 2,7 km/h (1 Bft) NW 325 ? 0 min 53 W/m? 1,8 ?C 6,4 km/h (2 Bft)
24.04.2024 16:03 9,4 ?C 10,2 ?C 10,9 ?C 61 % 1005,2 hPa 0,0 l/m? 1,7 km/h (1 Bft) N-NW 334 ? 0 min 54 W/m? 2,3 ?C 8,0 km/h (2 Bft)
24.04.2024 16:06 8,5 ?C 9,5 ?C 10,8 ?C 67 % 1005,3 hPa 0,0 l/m? 2,4 km/h (1 Bft) NW 318 ? 0 min 57 W/m? 2,7 ?C 4,8 km/h (1 Bft)
24.04.2024 16:09 8,0 ?C 9,4 ?C 11,0 ?C 70 % 1005,3 hPa 0,0 l/m? 1,6 km/h (1 Bft) NW 310 ? 0 min 58 W/m? 2,9 ?C 4,8 km/h (1 Bft)
24.04.2024 16:12 7,9 ?C 9,6 ?C 11,1 ?C 70 % 1005,3 hPa 0,0 l/m? 0,9 km/h (0 Bft) W-NW 303 ? 0 min 56 W/m? 2,8 ?C 3,2 km/h (1 Bft)
24.04.2024 16:15 8,2 ?C 9,7 ?C 11,1 ?C 68 % 1005,3 hPa 0,0 l/m? 0,1 km/h (0 Bft) W-NW 303 ? 0 min 52 W/m? 2,7 ?C 1,6 km/h (1 Bft)
24.04.2024 16:18 8,4 ?C 9,2 ?C 11,0 ?C 66 % 1005,4 hPa 0,0 l/m? 0,1 km/h (0 Bft) NW 304 ? 0 min 49 W/m? 2,4 ?C 1,6 km/h (1 Bft)
24.04.2024 16:21 8,5 ?C 9,3 ?C 10,9 ?C 66 % 1005,3 hPa 0,0 l/m? 0,5 km/h (0 Bft) NW 305 ? 0 min 49 W/m? 2,5 ?C 3,2 km/h (1 Bft)
24.04.2024 16:24 8,6 ?C 9,4 ?C 10,7 ?C 67 % 1005,3 hPa 0,0 l/m? 2,1 km/h (1 Bft) N-NW 338 ? 0 min 49 W/m? 2,8 ?C 9,7 km/h (2 Bft)
24.04.2024 16:27 8,5 ?C 8,8 ?C 10,2 ?C 66 % 1005,3 hPa 0,0 l/m? 5,6 km/h (2 Bft) N-NW 341 ? 0 min 53 W/m? 2,5 ?C 12,9 km/h (3 Bft)
24.04.2024 16:30 8,5 ?C 8,3 ?C 9,9 ?C 65 % 1005,3 hPa 0,0 l/m? 5,4 km/h (2 Bft) NW 325 ? 0 min 60 W/m? 2,3 ?C 11,3 km/h (2 Bft)
24.04.2024 16:33 8,5 ?C 8,4 ?C 9,8 ?C 64 % 1005,3 hPa 0,0 l/m? 6,3 km/h (2 Bft) S-SO 167 ? 0 min 71 W/m? 2,1 ?C 11,3 km/h (2 Bft)
24.04.2024 16:36 8,6 ?C 8,4 ?C 9,7 ?C 63 % 1005,3 hPa 0,0 l/m? 5,3 km/h (1 Bft) S 178 ? 0 min 81 W/m? 2,0 ?C 14,5 km/h (3 Bft)
24.04.2024 16:39 8,6 ?C 8,6 ?C 9,6 ?C 64 % 1005,3 hPa 0,0 l/m? 7,4 km/h (2 Bft) S-SO 168 ? 0 min 97 W/m? 2,2 ?C 14,5 km/h (3 Bft)
24.04.2024 16:42 8,6 ?C 8,9 ?C 10,0 ?C 64 % 1005,4 hPa 0,0 l/m? 8,1 km/h (2 Bft) SW 214 ? 0 min 113 W/m? 2,2 ?C 12,9 km/h (3 Bft)
24.04.2024 16:45 8,7 ?C 9,3 ?C 10,4 ?C 64 % 1005,3 hPa 0,0 l/m? 5,5 km/h (2 Bft) SW 222 ? 0 min 120 W/m? 2,3 ?C 9,7 km/h (2 Bft)
24.04.2024 16:48 8,8 ?C 9,2 ?C 10,5 ?C 63 % 1005,3 hPa 0,0 l/m? 4,7 km/h (1 Bft) S-SW 209 ? 0 min 126 W/m? 2,2 ?C 9,7 km/h (2 Bft)
24.04.2024 16:51 8,9 ?C 9,3 ?C 10,7 ?C 63 % 1005,3 hPa 0,0 l/m? 5,5 km/h (2 Bft) SW 216 ? 0 min 150 W/m? 2,2 ?C 9,7 km/h (2 Bft)
24.04.2024 16:54 8,9 ?C 9,3 ?C 10,2 ?C 61 % 1005,3 hPa 0,0 l/m? 6,1 km/h (2 Bft) S-SO 164 ? 0 min 199 W/m? 1,8 ?C 11,3 km/h (2 Bft)
24.04.2024 16:57 9,0 ?C 10,5 ?C 11,2 ?C 60 % 1005,2 hPa 0,0 l/m? 1,8 km/h (1 Bft) S 172 ? 0 min 242 W/m? 1,7 ?C 4,8 km/h (1 Bft)
24.04.2024 17:00 9,3 ?C 11,5 ?C 12,4 ?C 61 % 1005,1 hPa 0,0 l/m? 0,5 km/h (0 Bft) S-SO 161 ? 0 min 231 W/m? 2,2 ?C 1,6 km/h (1 Bft)
24.04.2024 17:03 9,6 ?C 12,0 ?C 12,3 ?C 61 % 1005,1 hPa 0,0 l/m? 1,1 km/h (1 Bft) O-SO 106 ? 0 min 191 W/m? 2,5 ?C 3,2 km/h (1 Bft)
24.04.2024 17:06 9,5 ?C 11,6 ?C 12,3 ?C 58 % 1005,0 hPa 0,0 l/m? 0,8 km/h (0 Bft) NO 45 ? 0 min 174 W/m? 1,7 ?C 3,2 km/h (1 Bft)
24.04.2024 17:09 9,6 ?C 11,3 ?C 11,9 ?C 60 % 1005,0 hPa 0,0 l/m? 2,9 km/h (1 Bft) N-NW 346 ? 0 min 163 W/m? 2,2 ?C 8,0 km/h (2 Bft)
24.04.2024 17:12 9,6 ?C 11,0 ?C 11,7 ?C 60 % 1005,0 hPa 0,0 l/m? 3,9 km/h (1 Bft) N-NW 339 ? 0 min 147 W/m? 2,2 ?C 8,0 km/h (2 Bft)
24.04.2024 17:15 9,6 ?C 11,0 ?C 11,2 ?C 60 % 1005,0 hPa 0,0 l/m? 3,2 km/h (1 Bft) N-NW 335 ? 0 min 148 W/m? 2,2 ?C 8,0 km/h (2 Bft)
24.04.2024 17:18 9,5 ?C 10,9 ?C 11,0 ?C 60 % 1005,0 hPa 0,0 l/m? 4,9 km/h (1 Bft) N 8 ? 0 min 155 W/m? 2,1 ?C 9,7 km/h (2 Bft)
24.04.2024 17:21 9,4 ?C 10,9 ?C 10,5 ?C 61 % 1005,0 hPa 0,0 l/m? 5,2 km/h (1 Bft) N 2 ? 0 min 128 W/m? 2,3 ?C 9,7 km/h (2 Bft)
24.04.2024 17:24 9,3 ?C 10,7 ?C 11,0 ?C 60 % 1004,9 hPa 0,0 l/m? 1,3 km/h (1 Bft) N 10 ? 0 min 105 W/m? 1,9 ?C 3,2 km/h (1 Bft)
24.04.2024 17:27 9,3 ?C 10,4 ?C 10,7 ?C 60 % 1004,9 hPa 0,0 l/m? 3,0 km/h (1 Bft) N-NO 13 ? 0 min 94 W/m? 1,9 ?C 8,0 km/h (2 Bft)
24.04.2024 17:30 9,3 ?C 10,1 ?C 10,2 ?C 60 % 1004,9 hPa 0,0 l/m? 4,2 km/h (1 Bft) N-NO 31 ? 0 min 96 W/m? 1,9 ?C 8,0 km/h (2 Bft)
24.04.2024 17:33 9,2 ?C 10,1 ?C 10,3 ?C 60 % 1004,8 hPa 0,0 l/m? 2,5 km/h (1 Bft) N-NO 17 ? 0 min 115 W/m? 1,8 ?C 8,0 km/h (2 Bft)
24.04.2024 17:36 9,2 ?C 10,3 ?C 10,3 ?C 61 % 1004,7 hPa 0,0 l/m? 3,5 km/h (1 Bft) N-NO 33 ? 0 min 145 W/m? 2,1 ?C 8,0 km/h (2 Bft)
24.04.2024 17:39 9,3 ?C 10,5 ?C 10,3 ?C 61 % 1004,7 hPa 0,0 l/m? 4,5 km/h (1 Bft) N-NO 31 ? 0 min 137 W/m? 2,2 ?C 11,3 km/h (2 Bft)
24.04.2024 17:42 9,4 ?C 10,6 ?C 10,1 ?C 61 % 1004,6 hPa 0,0 l/m? 4,4 km/h (1 Bft) NO 41 ? 0 min 135 W/m? 2,3 ?C 9,7 km/h (2 Bft)
24.04.2024 17:45 9,4 ?C 10,6 ?C 10,2 ?C 61 % 1004,6 hPa 0,0 l/m? 3,3 km/h (1 Bft) N-NO 30 ? 0 min 120 W/m? 2,3 ?C 9,7 km/h (2 Bft)
24.04.2024 17:48 9,4 ?C 10,4 ?C 10,2 ?C 61 % 1004,6 hPa 0,0 l/m? 2,7 km/h (1 Bft) NO 39 ? 0 min 120 W/m? 2,3 ?C 6,4 km/h (2 Bft)
24.04.2024 17:51 9,4 ?C 10,2 ?C 10,2 ?C 62 % 1004,6 hPa 0,0 l/m? 3,1 km/h (1 Bft) N-NO 12 ? 0 min 113 W/m? 2,5 ?C 6,4 km/h (2 Bft)
24.04.2024 17:54 9,4 ?C 10,0 ?C 10,2 ?C 61 % 1004,6 hPa 0,0 l/m? 2,6 km/h (1 Bft) N-NO 27 ? 0 min 107 W/m? 2,3 ?C 6,4 km/h (2 Bft)
24.04.2024 17:57 9,4 ?C 9,9 ?C 10,2 ?C 61 % 1004,6 hPa 0,0 l/m? 1,2 km/h (1 Bft) N 10 ? 0 min 102 W/m? 2,3 ?C 6,4 km/h (2 Bft)
24.04.2024 18:00 9,3 ?C 9,9 ?C 10,2 ?C 61 % 1004,6 hPa 0,0 l/m? 2,6 km/h (1 Bft) N-NO 24 ? 0 min 97 W/m? 2,2 ?C 6,4 km/h (2 Bft)
24.04.2024 18:03 9,3 ?C 9,8 ?C 9,8 ?C 61 % 1004,6 hPa 0,0 l/m? 2,1 km/h (1 Bft) N-NO 29 ? 0 min 89 W/m? 2,2 ?C 4,8 km/h (1 Bft)
24.04.2024 18:06 9,2 ?C 9,7 ?C 9,9 ?C 61 % 1004,6 hPa 0,0 l/m? 3,6 km/h (1 Bft) N-NO 17 ? 0 min 97 W/m? 2,1 ?C 8,0 km/h (2 Bft)
24.04.2024 18:09 9,1 ?C 9,7 ?C 9,9 ?C 60 % 1004,6 hPa 0,0 l/m? 2,5 km/h (1 Bft) N-NO 13 ? 0 min 113 W/m? 1,8 ?C 6,4 km/h (2 Bft)
24.04.2024 18:12 9,2 ?C 10,1 ?C 10,1 ?C 62 % 1004,6 hPa 0,0 l/m? 2,3 km/h (1 Bft) NO 36 ? 0 min 129 W/m? 2,3 ?C 4,8 km/h (1 Bft)
24.04.2024 18:15 9,3 ?C 10,4 ?C 10,1 ?C 61 % 1004,6 hPa 0,0 l/m? 2,6 km/h (1 Bft) NO 52 ? 0 min 114 W/m? 2,2 ?C 6,4 km/h (2 Bft)
24.04.2024 18:18 9,4 ?C 10,4 ?C 10,3 ?C 61 % 1004,6 hPa 0,0 l/m? 2,5 km/h (1 Bft) NO 50 ? 0 min 108 W/m? 2,3 ?C 6,4 km/h (2 Bft)
24.04.2024 18:21 9,4 ?C 10,4 ?C 9,9 ?C 60 % 1004,5 hPa 0,0 l/m? 4,4 km/h (1 Bft) NO 52 ? 0 min 114 W/m? 2,0 ?C 9,7 km/h (2 Bft)
24.04.2024 18:24 9,4 ?C 10,5 ?C 10,1 ?C 60 % 1004,5 hPa 0,0 l/m? 2,7 km/h (1 Bft) NO 45 ? 3 min 194 W/m? 2,0 ?C 4,8 km/h (1 Bft)
24.04.2024 18:27 9,5 ?C 10,7 ?C 10,7 ?C 59 % 1004,5 hPa 0,0 l/m? 3,5 km/h (1 Bft) NO 51 ? 3 min 210 W/m? 1,9 ?C 9,7 km/h (2 Bft)
24.04.2024 18:30 9,6 ?C 10,8 ?C 10,7 ?C 58 % 1004,5 hPa 0,0 l/m? 3,7 km/h (1 Bft) NO 34 ? 3 min 205 W/m? 1,8 ?C 6,4 km/h (2 Bft)
24.04.2024 18:33 9,7 ?C 10,7 ?C 10,8 ?C 57 % 1004,5 hPa 0,0 l/m? 2,5 km/h (1 Bft) O-SO 102 ? 3 min 199 W/m? 1,6 ?C 4,8 km/h (1 Bft)
24.04.2024 18:36 9,7 ?C 10,5 ?C 10,7 ?C 57 % 1004,4 hPa 0,0 l/m? 3,4 km/h (1 Bft) SO 134 ? 3 min 179 W/m? 1,6 ?C 6,4 km/h (2 Bft)
24.04.2024 18:39 9,7 ?C 10,1 ?C 10,9 ?C 56 % 1004,4 hPa 0,0 l/m? 2,7 km/h (1 Bft) S 184 ? 3 min 156 W/m? 1,4 ?C 6,4 km/h (2 Bft)
24.04.2024 18:42 9,7 ?C 9,8 ?C 11,3 ?C 58 % 1004,4 hPa 0,0 l/m? 0,6 km/h (0 Bft) S 172 ? 3 min 146 W/m? 1,8 ?C 1,6 km/h (1 Bft)
24.04.2024 18:45 9,7 ?C 9,5 ?C 11,0 ?C 58 % 1004,4 hPa 0,0 l/m? 1,6 km/h (1 Bft) NO 47 ? 0 min 87 W/m? 1,8 ?C 4,8 km/h (1 Bft)
24.04.2024 18:48 9,6 ?C 9,1 ?C 9,9 ?C 57 % 1004,4 hPa 0,0 l/m? 3,9 km/h (1 Bft) S 178 ? 0 min 54 W/m? 1,5 ?C 6,4 km/h (2 Bft)
24.04.2024 18:51 9,4 ?C 8,7 ?C 10,2 ?C 56 % 1004,4 hPa 0,0 l/m? 0,1 km/h (0 Bft) S 185 ? 0 min 49 W/m? 1,1 ?C 1,6 km/h (1 Bft)
24.04.2024 18:54 9,3 ?C 8,3 ?C 10,3 ?C 56 % 1004,4 hPa 0,0 l/m? 0,2 km/h (0 Bft) NO 43 ? 0 min 43 W/m? 1,0 ?C 1,6 km/h (1 Bft)
24.04.2024 18:57 9,2 ?C 8,2 ?C 9,9 ?C 59 % 1004,4 hPa 0,0 l/m? 0,4 km/h (0 Bft) NO 43 ? 0 min 40 W/m? 1,6 ?C 1,6 km/h (1 Bft)
24.04.2024 19:00 9,0 ?C 8,1 ?C 10,1 ?C 60 % 1004,4 hPa 0,0 l/m? 0,0 km/h (0 Bft) N 0 ? 0 min 35 W/m? 1,7 ?C 0,0 km/h (0 Bft)
24.04.2024 19:03 8,9 ?C 8,1 ?C 10,0 ?C 61 % 1004,4 hPa 0,0 l/m? 0,0 km/h (0 Bft) NO 43 ? 0 min 29 W/m? 1,8 ?C 1,6 km/h (1 Bft)
24.04.2024 19:06 8,8 ?C 8,0 ?C 9,6 ?C 61 % 1004,4 hPa 0,0 l/m? 0,3 km/h (0 Bft) NO 43 ? 0 min 28 W/m? 1,7 ?C 3,2 km/h (1 Bft)
24.04.2024 19:09 8,8 ?C 8,0 ?C 9,3 ?C 62 % 1004,4 hPa 0,0 l/m? 0,4 km/h (0 Bft) NO 43 ? 0 min 27 W/m? 1,9 ?C 1,6 km/h (1 Bft)
24.04.2024 19:12 8,7 ?C 8,0 ?C 9,3 ?C 63 % 1004,4 hPa 0,0 l/m? 0,1 km/h (0 Bft) NO 43 ? 0 min 24 W/m? 2,1 ?C 1,6 km/h (1 Bft)
24.04.2024 19:15 8,6 ?C 8,0 ?C 9,4 ?C 64 % 1004,4 hPa 0,0 l/m? 0,0 km/h (0 Bft) NO 43 ? 0 min 21 W/m? 2,2 ?C 1,6 km/h (1 Bft)
24.04.2024 19:18 8,5 ?C 8,0 ?C 9,2 ?C 65 % 1004,4 hPa 0,0 l/m? 0,7 km/h (0 Bft) NO 43 ? 0 min 16 W/m? 2,3 ?C 3,2 km/h (1 Bft)
24.04.2024 19:21 8,4 ?C 7,9 ?C 9,1 ?C 65 % 1004,5 hPa 0,0 l/m? 0,3 km/h (0 Bft) NO 43 ? 0 min 14 W/m? 2,2 ?C 1,6 km/h (1 Bft)
24.04.2024 19:24 8,3 ?C 7,9 ?C 9,2 ?C 66 % 1004,4 hPa 0,0 l/m? 0,0 km/h (0 Bft) N 0 ? 0 min 16 W/m? 2,3 ?C 0,0 km/h (0 Bft)
24.04.2024 19:27 8,3 ?C 8,0 ?C 9,2 ?C 67 % 1004,4 hPa 0,0 l/m? 0,1 km/h (0 Bft) NO 43 ? 0 min 20 W/m? 2,5 ?C 1,6 km/h (1 Bft)
24.04.2024 19:30 8,3 ?C 8,1 ?C 9,2 ?C 67 % 1004,4 hPa 0,0 l/m? 0,0 km/h (0 Bft) N 0 ? 0 min 20 W/m? 2,5 ?C 0,0 km/h (0 Bft)
24.04.2024 19:33 8,2 ?C 8,2 ?C 9,2 ?C 68 % 1004,4 hPa 0,0 l/m? 0,0 km/h (0 Bft) N 0 ? 0 min 17 W/m? 2,7 ?C 0,0 km/h (0 Bft)
24.04.2024 19:36 8,1 ?C 8,2 ?C 9,1 ?C 68 % 1004,5 hPa 0,0 l/m? 0,0 km/h (0 Bft) N 0 ? 0 min 16 W/m? 2,6 ?C 0,0 km/h (0 Bft)
24.04.2024 19:39 8,1 ?C 8,2 ?C 8,9 ?C 69 % 1004,5 hPa 0,0 l/m? 0,0 km/h (0 Bft) N 0 ? 0 min 14 W/m? 2,8 ?C 0,0 km/h (0 Bft)
24.04.2024 19:45 8,0 ?C 8,2 ?C 8,9 ?C 70 % 1004,5 hPa 0,0 l/m? 0,0 km/h (0 Bft) N 0 ? 0 min 11 W/m? 2,9 ?C 0,0 km/h (0 Bft)
24.04.2024 19:48 8,0 ?C 8,1 ?C 8,8 ?C 70 % 1004,5 hPa 0,0 l/m? 0,0 km/h (0 Bft) N 0 ? 0 min 10 W/m? 2,9 ?C 0,0 km/h (0 Bft)
24.04.2024 19:51 7,9 ?C 8,0 ?C 8,7 ?C 70 % 1004,5 hPa 0,0 l/m? 0,0 km/h (0 Bft) N 0 ? 0 min 6 W/m? 2,8 ?C 0,0 km/h (0 Bft)
24.04.2024 19:54 7,9 ?C 8,0 ?C 8,6 ?C 69 % 1004,5 hPa 0,0 l/m? 0,0 km/h (0 Bft) N 0 ? 0 min 5 W/m? 2,6 ?C 0,0 km/h (0 Bft)
24.04.2024 19:57 7,9 ?C 7,9 ?C 8,4 ?C 70 % 1004,6 hPa 0,0 l/m? 1,8 km/h (1 Bft) O 94 ? 0 min 3 W/m? 2,8 ?C 6,4 km/h (2 Bft)
24.04.2024 20:00 7,9 ?C 7,8 ?C 8,1 ?C 69 % 1004,7 hPa 0,0 l/m? 11,0 km/h (2 Bft) O-SO 119 ? 0 min 2 W/m? 2,6 ?C 16,1 km/h (3 Bft)
24.04.2024 20:03 7,9 ?C 7,7 ?C 7,7 ?C 68 % 1004,7 hPa 0,0 l/m? 7,0 km/h (2 Bft) O 101 ? 0 min 2 W/m? 2,4 ?C 12,9 km/h (3 Bft)
24.04.2024 20:06 7,9 ?C 7,6 ?C 8,0 ?C 68 % 1004,7 hPa 0,0 l/m? 3,4 km/h (1 Bft) O 91 ? 0 min 1 W/m? 2,4 ?C 6,4 km/h (2 Bft)
24.04.2024 20:09 7,9 ?C 7,5 ?C 8,0 ?C 67 % 1004,8 hPa 0,0 l/m? 4,3 km/h (1 Bft) S-SW 192 ? 0 min 0 W/m? 2,2 ?C 8,0 km/h (2 Bft)
24.04.2024 20:12 7,8 ?C 7,5 ?C 7,9 ?C 68 % 1004,9 hPa 0,0 l/m? 6,3 km/h (2 Bft) SW 220 ? 0 min 0 W/m? 2,3 ?C 11,3 km/h (2 Bft)
24.04.2024 20:15 7,8 ?C 7,5 ?C 7,9 ?C 68 % 1004,9 hPa 0,0 l/m? 7,9 km/h (2 Bft) W-SW 238 ? 0 min 0 W/m? 2,3 ?C 12,9 km/h (3 Bft)
24.04.2024 20:18 7,8 ?C 7,4 ?C 7,7 ?C 68 % 1004,9 hPa 0,0 l/m? 8,6 km/h (2 Bft) SW 224 ? 0 min 0 W/m? 2,3 ?C 16,1 km/h (3 Bft)
24.04.2024 20:21 7,7 ?C 7,3 ?C 7,5 ?C 69 % 1004,9 hPa 0,0 l/m? 4,7 km/h (1 Bft) SW 227 ? 0 min 0 W/m? 2,4 ?C 9,7 km/h (2 Bft)
24.04.2024 20:24 7,5 ?C 7,0 ?C 7,0 ?C 71 % 1005,0 hPa 0,0 l/m? 7,8 km/h (2 Bft) W-SW 237 ? 0 min 0 W/m? 2,6 ?C 14,5 km/h (3 Bft)
24.04.2024 20:27 7,3 ?C 6,6 ?C 6,9 ?C 72 % 1005,1 hPa 0,0 l/m? 8,1 km/h (2 Bft) W-SW 242 ? 0 min 0 W/m? 2,6 ?C 12,9 km/h (3 Bft)
24.04.2024 20:30 7,0 ?C 6,5 ?C 6,9 ?C 73 % 1005,1 hPa 0,0 l/m? 8,1 km/h (2 Bft) W 265 ? 0 min 0 W/m? 2,5 ?C 12,9 km/h (3 Bft)
24.04.2024 20:33 6,9 ?C 6,4 ?C 6,9 ?C 74 % 1005,1 hPa 0,0 l/m? 8,7 km/h (2 Bft) W 270 ? 0 min 0 W/m? 2,6 ?C 12,9 km/h (3 Bft)
24.04.2024 20:36 6,8 ?C 6,4 ?C 6,9 ?C 74 % 1005,1 hPa 0,0 l/m? 6,9 km/h (2 Bft) W 268 ? 0 min 0 W/m? 2,5 ?C 12,9 km/h (3 Bft)
24.04.2024 20:39 6,8 ?C 6,5 ?C 6,9 ?C 74 % 1005,2 hPa 0,0 l/m? 7,1 km/h (2 Bft) W 264 ? 0 min 0 W/m? 2,5 ?C 12,9 km/h (3 Bft)
24.04.2024 20:42 6,8 ?C 6,5 ?C 6,9 ?C 74 % 1005,2 hPa 0,0 l/m? 7,5 km/h (2 Bft) W 264 ? 0 min 0 W/m? 2,5 ?C 12,9 km/h (3 Bft)
24.04.2024 20:45 6,8 ?C 6,4 ?C 6,9 ?C 74 % 1005,2 hPa 0,0 l/m? 5,8 km/h (2 Bft) W 259 ? 0 min 0 W/m? 2,5 ?C 12,9 km/h (3 Bft)
24.04.2024 20:48 6,8 ?C 6,4 ?C 6,9 ?C 74 % 1005,2 hPa 0,0 l/m? 6,4 km/h (2 Bft) W 263 ? 0 min 0 W/m? 2,5 ?C 11,3 km/h (2 Bft)
24.04.2024 20:51 6,8 ?C 6,4 ?C 6,8 ?C 74 % 1005,3 hPa 0,0 l/m? 4,1 km/h (1 Bft) W-SW 246 ? 0 min 0 W/m? 2,5 ?C 8,0 km/h (2 Bft)
24.04.2024 20:54 6,8 ?C 6,3 ?C 6,7 ?C 75 % 1005,4 hPa 0,0 l/m? 3,4 km/h (1 Bft) S-SW 213 ? 0 min 0 W/m? 2,7 ?C 6,4 km/h (2 Bft)
24.04.2024 20:57 6,7 ?C 6,2 ?C 6,6 ?C 75 % 1005,5 hPa 0,0 l/m? 3,6 km/h (1 Bft) S 179 ? 0 min 0 W/m? 2,6 ?C 6,4 km/h (2 Bft)
24.04.2024 21:00 6,6 ?C 6,2 ?C 6,6 ?C 76 % 1005,5 hPa 0,0 l/m? 3,8 km/h (1 Bft) S 179 ? 0 min 0 W/m? 2,7 ?C 8,0 km/h (2 Bft)
24.04.2024 21:03 6,6 ?C 6,2 ?C 6,4 ?C 76 % 1005,5 hPa 0,0 l/m? 1,6 km/h (1 Bft) S 175 ? 0 min 0 W/m? 2,7 ?C 4,8 km/h (1 Bft)
24.04.2024 21:06 6,6 ?C 6,2 ?C 6,3 ?C 76 % 1005,6 hPa 0,0 l/m? 1,8 km/h (1 Bft) S 174 ? 0 min 0 W/m? 2,7 ?C 6,4 km/h (2 Bft)
24.04.2024 21:09 6,5 ?C 6,2 ?C 6,3 ?C 76 % 1005,6 hPa 0,0 l/m? 5,1 km/h (1 Bft) S-SO 165 ? 0 min 0 W/m? 2,6 ?C 8,0 km/h (2 Bft)
24.04.2024 21:12 6,5 ?C 6,2 ?C 6,1 ?C 77 % 1005,6 hPa 0,0 l/m? 3,8 km/h (1 Bft) S 184 ? 0 min 0 W/m? 2,8 ?C 6,4 km/h (2 Bft)
24.04.2024 21:15 6,4 ?C 6,0 ?C 6,0 ?C 77 % 1005,6 hPa 0,0 l/m? 1,6 km/h (1 Bft) S-SW 195 ? 0 min 0 W/m? 2,7 ?C 3,2 km/h (1 Bft)
24.04.2024 21:18 6,4 ?C 6,1 ?C 6,1 ?C 78 % 1005,6 hPa 0,0 l/m? 2,0 km/h (1 Bft) S 186 ? 0 min 0 W/m? 2,8 ?C 3,2 km/h (1 Bft)
24.04.2024 21:21 6,3 ?C 6,0 ?C 6,0 ?C 78 % 1005,6 hPa 0,0 l/m? 1,3 km/h (1 Bft) S 187 ? 0 min 0 W/m? 2,8 ?C 3,2 km/h (1 Bft)
24.04.2024 21:24 6,3 ?C 6,0 ?C 6,0 ?C 79 % 1005,7 hPa 0,0 l/m? 1,8 km/h (1 Bft) S 189 ? 0 min 0 W/m? 2,9 ?C 3,2 km/h (1 Bft)
24.04.2024 21:27 6,2 ?C 5,9 ?C 6,1 ?C 79 % 1005,6 hPa 0,0 l/m? 3,1 km/h (1 Bft) S-SO 168 ? 0 min 0 W/m? 2,8 ?C 6,4 km/h (2 Bft)
24.04.2024 21:30 6,2 ?C 5,9 ?C 6,0 ?C 79 % 1005,6 hPa 0,0 l/m? 3,0 km/h (1 Bft) S-SO 161 ? 0 min 0 W/m? 2,8 ?C 6,4 km/h (2 Bft)
24.04.2024 21:33 6,2 ?C 5,9 ?C 5,9 ?C 80 % 1005,6 hPa 0,0 l/m? 2,2 km/h (1 Bft) S 176 ? 0 min 0 W/m? 3,0 ?C 3,2 km/h (1 Bft)
24.04.2024 21:36 6,1 ?C 6,0 ?C 5,9 ?C 81 % 1005,6 hPa 0,0 l/m? 2,4 km/h (1 Bft) SW 228 ? 0 min 0 W/m? 3,1 ?C 4,8 km/h (1 Bft)
24.04.2024 21:39 6,0 ?C 6,1 ?C 5,8 ?C 81 % 1005,6 hPa 0,0 l/m? 3,0 km/h (1 Bft) SW 220 ? 0 min 0 W/m? 3,0 ?C 6,4 km/h (2 Bft)
24.04.2024 21:42 5,9 ?C 6,2 ?C 5,8 ?C 82 % 1005,6 hPa 0,0 l/m? 2,8 km/h (1 Bft) SW 228 ? 0 min 0 W/m? 3,1 ?C 6,4 km/h (2 Bft)
24.04.2024 21:45 5,8 ?C 6,2 ?C 5,7 ?C 82 % 1005,6 hPa 0,2 l/m? 4,9 km/h (1 Bft) W-SW 256 ? 0 min 0 W/m? 3,0 ?C 8,0 km/h (2 Bft)
24.04.2024 21:48 5,7 ?C 6,0 ?C 5,6 ?C 83 % 1005,5 hPa 0,0 l/m? 5,2 km/h (1 Bft) W 277 ? 0 min 0 W/m? 3,0 ?C 11,3 km/h (2 Bft)
24.04.2024 21:51 5,7 ?C 5,9 ?C 5,6 ?C 83 % 1005,4 hPa 0,0 l/m? 6,5 km/h (2 Bft) W 276 ? 0 min 0 W/m? 3,0 ?C 11,3 km/h (2 Bft)
24.04.2024 21:54 5,6 ?C 6,0 ?C 5,5 ?C 84 % 1005,5 hPa 0,2 l/m? 7,1 km/h (2 Bft) W 274 ? 0 min 0 W/m? 3,1 ?C 11,3 km/h (2 Bft)
24.04.2024 21:57 5,6 ?C 5,9 ?C 5,5 ?C 84 % 1005,5 hPa 0,0 l/m? 7,8 km/h (2 Bft) W 276 ? 0 min 0 W/m? 3,1 ?C 12,9 km/h (3 Bft)
24.04.2024 22:00 5,5 ?C 5,7 ?C 5,5 ?C 84 % 1005,5 hPa 0,0 l/m? 6,7 km/h (2 Bft) W 276 ? 0 min 0 W/m? 3,0 ?C 11,3 km/h (2 Bft)
24.04.2024 22:03 5,5 ?C 5,6 ?C 5,5 ?C 84 % 1005,5 hPa 0,0 l/m? 5,1 km/h (1 Bft) W-NW 282 ? 0 min 0 W/m? 3,0 ?C 9,7 km/h (2 Bft)
24.04.2024 22:06 5,4 ?C 5,7 ?C 5,5 ?C 84 % 1005,5 hPa 0,0 l/m? 5,3 km/h (1 Bft) W-SW 257 ? 0 min 0 W/m? 2,9 ?C 8,0 km/h (2 Bft)
24.04.2024 22:09 5,4 ?C 5,6 ?C 5,5 ?C 84 % 1005,7 hPa 0,0 l/m? 10,4 km/h (2 Bft) SW 215 ? 0 min 0 W/m? 2,9 ?C 22,5 km/h (4 Bft)
24.04.2024 22:12 5,4 ?C 5,4 ?C 5,4 ?C 83 % 1005,6 hPa 0,0 l/m? 8,2 km/h (2 Bft) S-SW 195 ? 0 min 0 W/m? 2,7 ?C 16,1 km/h (3 Bft)
24.04.2024 22:15 5,3 ?C 5,3 ?C 5,3 ?C 83 % 1005,7 hPa 0,0 l/m? 7,4 km/h (2 Bft) S-SW 205 ? 0 min 0 W/m? 2,7 ?C 14,5 km/h (3 Bft)
24.04.2024 22:18 5,3 ?C 5,2 ?C 5,2 ?C 83 % 1005,6 hPa 0,0 l/m? 6,2 km/h (2 Bft) S-SW 203 ? 0 min 0 W/m? 2,7 ?C 12,9 km/h (3 Bft)
24.04.2024 22:21 5,2 ?C 5,2 ?C 5,2 ?C 82 % 1005,6 hPa 0,0 l/m? 5,2 km/h (1 Bft) S-SW 195 ? 0 min 0 W/m? 2,4 ?C 8,0 km/h (2 Bft)
24.04.2024 22:24 5,2 ?C 5,1 ?C 5,1 ?C 82 % 1005,6 hPa 0,0 l/m? 4,0 km/h (1 Bft) S 185 ? 0 min 0 W/m? 2,4 ?C 8,0 km/h (2 Bft)
24.04.2024 22:27 5,2 ?C 5,1 ?C 5,0 ?C 83 % 1005,6 hPa 0,0 l/m? 2,9 km/h (1 Bft) S 186 ? 0 min 0 W/m? 2,6 ?C 8,0 km/h (2 Bft)
24.04.2024 22:30 5,1 ?C 5,0 ?C 4,9 ?C 83 % 1005,6 hPa 0,0 l/m? 4,4 km/h (1 Bft) S-SW 193 ? 0 min 0 W/m? 2,5 ?C 8,0 km/h (2 Bft)
24.04.2024 22:33 5,1 ?C 5,0 ?C 5,0 ?C 83 % 1005,6 hPa 0,0 l/m? 3,8 km/h (1 Bft) S 187 ? 0 min 0 W/m? 2,5 ?C 8,0 km/h (2 Bft)
24.04.2024 22:36 5,1 ?C 5,0 ?C 4,9 ?C 83 % 1005,6 hPa 0,0 l/m? 1,7 km/h (1 Bft) S-SW 195 ? 0 min 0 W/m? 2,5 ?C 4,8 km/h (1 Bft)
24.04.2024 22:39 5,1 ?C 5,0 ?C 4,6 ?C 83 % 1005,4 hPa 0,0 l/m? 1,3 km/h (1 Bft) S-SW 192 ? 0 min 0 W/m? 2,5 ?C 3,2 km/h (1 Bft)
24.04.2024 22:42 5,1 ?C 5,1 ?C 4,4 ?C 83 % 1005,3 hPa 0,2 l/m? 2,0 km/h (1 Bft) NW 322 ? 0 min 0 W/m? 2,5 ?C 4,8 km/h (1 Bft)
24.04.2024 22:45 5,1 ?C 5,1 ?C 4,2 ?C 83 % 1005,3 hPa 0,0 l/m? 3,2 km/h (1 Bft) N-NW 331 ? 0 min 0 W/m? 2,5 ?C 6,4 km/h (2 Bft)
24.04.2024 22:48 5,0 ?C 5,0 ?C 4,2 ?C 83 % 1005,3 hPa 0,0 l/m? 2,1 km/h (1 Bft) N-NW 329 ? 0 min 0 W/m? 2,4 ?C 4,8 km/h (1 Bft)
24.04.2024 22:51 5,0 ?C 4,9 ?C 4,2 ?C 84 % 1005,4 hPa 0,0 l/m? 0,0 km/h (0 Bft) N 0 ? 0 min 0 W/m? 2,5 ?C 0,0 km/h (0 Bft)
24.04.2024 22:54 4,9 ?C 5,0 ?C 4,1 ?C 84 % 1005,3 hPa 0,0 l/m? 0,0 km/h (0 Bft) N 0 ? 0 min 0 W/m? 2,4 ?C 0,0 km/h (0 Bft)
24.04.2024 22:57 4,8 ?C 4,9 ?C 4,2 ?C 84 % 1005,4 hPa 0,0 l/m? 2,4 km/h (1 Bft) N-NW 347 ? 0 min 0 W/m? 2,3 ?C 4,8 km/h (1 Bft)
24.04.2024 23:00 4,8 ?C 4,9 ?C 4,1 ?C 85 % 1005,3 hPa 0,0 l/m? 0,4 km/h (0 Bft) N-NO 28 ? 0 min 0 W/m? 2,5 ?C 1,6 km/h (1 Bft)
24.04.2024 23:03 4,7 ?C 5,0 ?C 4,0 ?C 85 % 1005,4 hPa 0,0 l/m? 0,3 km/h (0 Bft) N-NO 28 ? 0 min 0 W/m? 2,4 ?C 1,6 km/h (1 Bft)
24.04.2024 23:06 4,6 ?C 4,9 ?C 4,1 ?C 86 % 1005,4 hPa 0,0 l/m? 0,1 km/h (0 Bft) N-NO 28 ? 0 min 0 W/m? 2,5 ?C 1,6 km/h (1 Bft)
24.04.2024 23:09 4,6 ?C 4,7 ?C 4,2 ?C 86 % 1005,4 hPa 0,0 l/m? 2,0 km/h (1 Bft) N-NO 28 ? 0 min 0 W/m? 2,5 ?C 3,2 km/h (1 Bft)
24.04.2024 23:12 4,6 ?C 4,7 ?C 4,2 ?C 86 % 1005,4 hPa 0,0 l/m? 0,7 km/h (0 Bft) N-NO 28 ? 0 min 0 W/m? 2,5 ?C 3,2 km/h (1 Bft)
24.04.2024 23:15 4,6 ?C 4,6 ?C 4,2 ?C 86 % 1005,4 hPa 0,0 l/m? 0,0 km/h (0 Bft) N 0 ? 0 min 0 W/m? 2,5 ?C 0,0 km/h (0 Bft)
24.04.2024 23:18 4,5 ?C 4,5 ?C 4,1 ?C 87 % 1005,4 hPa 0,0 l/m? 0,0 km/h (0 Bft) N 0 ? 0 min 0 W/m? 2,5 ?C 0,0 km/h (0 Bft)
24.04.2024 23:21 4,4 ?C 4,5 ?C 4,1 ?C 87 % 1005,4 hPa 0,0 l/m? 0,0 km/h (0 Bft) N 0 ? 0 min 0 W/m? 2,4 ?C 0,0 km/h (0 Bft)
24.04.2024 23:24 4,4 ?C 4,5 ?C 4,0 ?C 87 % 1005,3 hPa 0,0 l/m? 0,1 km/h (0 Bft) N-NO 28 ? 0 min 0 W/m? 2,4 ?C 1,6 km/h (1 Bft)
24.04.2024 23:27 4,3 ?C 4,5 ?C 4,0 ?C 87 % 1005,3 hPa 0,0 l/m? 2,2 km/h (1 Bft) N-NO 28 ? 0 min 0 W/m? 2,3 ?C 3,2 km/h (1 Bft)
24.04.2024 23:30 4,3 ?C 4,3 ?C 3,9 ?C 88 % 1005,3 hPa 0,0 l/m? 2,2 km/h (1 Bft) N-NO 28 ? 0 min 0 W/m? 2,5 ?C 3,2 km/h (1 Bft)
24.04.2024 23:33 4,2 ?C 4,2 ?C 3,8 ?C 88 % 1005,3 hPa 0,0 l/m? 1,1 km/h (1 Bft) N-NO 28 ? 0 min 0 W/m? 2,4 ?C 3,2 km/h (1 Bft)
24.04.2024 23:36 4,1 ?C 3,9 ?C 3,7 ?C 88 % 1005,2 hPa 0,0 l/m? 0,8 km/h (0 Bft) N-NO 28 ? 0 min 0 W/m? 2,3 ?C 1,6 km/h (1 Bft)
24.04.2024 23:39 4,1 ?C 3,7 ?C 3,6 ?C 88 % 1005,2 hPa 0,0 l/m? 0,6 km/h (0 Bft) N-NO 28 ? 0 min 0 W/m? 2,3 ?C 1,6 km/h (1 Bft)
24.04.2024 23:42 4,0 ?C 3,3 ?C 3,6 ?C 88 % 1005,1 hPa 0,0 l/m? 1,3 km/h (1 Bft) N-NO 28 ? 0 min 0 W/m? 2,2 ?C 3,2 km/h (1 Bft)
24.04.2024 23:45 3,9 ?C 3,2 ?C 3,5 ?C 88 % 1005,2 hPa 0,0 l/m? 1,0 km/h (0 Bft) N-NO 28 ? 0 min 0 W/m? 2,1 ?C 1,6 km/h (1 Bft)
24.04.2024 23:48 3,7 ?C 3,0 ?C 3,4 ?C 88 % 1005,2 hPa 0,0 l/m? 0,3 km/h (0 Bft) N-NO 28 ? 0 min 0 W/m? 1,9 ?C 1,6 km/h (1 Bft)
24.04.2024 23:51 3,6 ?C 2,9 ?C 3,3 ?C 88 % 1005,2 hPa 0,0 l/m? 0,0 km/h (0 Bft) N 0 ? 0 min 0 W/m? 1,8 ?C 0,0 km/h (0 Bft)
24.04.2024 23:54 3,5 ?C 2,8 ?C 3,1 ?C 88 % 1005,2 hPa 0,0 l/m? 0,0 km/h (0 Bft) N 0 ? 0 min 0 W/m? 1,7 ?C 0,0 km/h (0 Bft)
24.04.2024 23:57 3,4 ?C 2,7 ?C 3,1 ?C 88 % 1005,1 hPa 0,0 l/m? 0,0 km/h (0 Bft) N 0 ? 0 min 0 W/m? 1,6 ?C 0,0 km/h (0 Bft)
25.04.2024 00:00 3,3 ?C 2,6 ?C 2,6 ?C 89 % 1005,1 hPa 0,0 l/m? 0,0 km/h (0 Bft) N 0 ? 0 min 0 W/m? 1,7 ?C 0,0 km/h (0 Bft)
25.04.2024 00:03 3,2 ?C 2,6 ?C 2,5 ?C 89 % 1005,1 hPa 0,0 l/m? 0,0 km/h (0 Bft) N 0 ? 0 min 0 W/m? 1,6 ?C 0,0 km/h (0 Bft)
25.04.2024 00:06 3,1 ?C 2,4 ?C 2,6 ?C 89 % 1005,1 hPa 0,0 l/m? 0,0 km/h (0 Bft) N 0 ? 0 min 0 W/m? 1,5 ?C 0,0 km/h (0 Bft)
25.04.2024 00:09 2,9 ?C 2,3 ?C 2,4 ?C 89 % 1005,1 hPa 0,0 l/m? 0,0 km/h (0 Bft) N 0 ? 0 min 0 W/m? 1,3 ?C 0,0 km/h (0 Bft)
25.04.2024 00:12 2,9 ?C 2,3 ?C 2,7 ?C 89 % 1005,1 hPa 0,0 l/m? 0,3 km/h (0 Bft) N-NO 28 ? 0 min 0 W/m? 1,3 ?C 1,6 km/h (1 Bft)
25.04.2024 00:15 2,8 ?C 2,3 ?C 3,0 ?C 89 % 1005,1 hPa 0,0 l/m? 0,1 km/h (0 Bft) N-NO 28 ? 0 min 0 W/m? 1,2 ?C 1,6 km/h (1 Bft)
25.04.2024 00:18 2,6 ?C 2,1 ?C 3,1 ?C 89 % 1005,1 hPa 0,0 l/m? 0,9 km/h (0 Bft) N-NO 28 ? 0 min 0 W/m? 1,0 ?C 1,6 km/h (1 Bft)
25.04.2024 00:21 2,5 ?C 2,0 ?C 3,3 ?C 89 % 1005,1 hPa 0,0 l/m? 1,6 km/h (1 Bft) N-NO 28 ? 0 min 0 W/m? 0,9 ?C 3,2 km/h (1 Bft)
25.04.2024 00:24 2,5 ?C 2,0 ?C 3,4 ?C 89 % 1005,0 hPa 0,0 l/m? 1,7 km/h (1 Bft) N-NO 28 ? 0 min 0 W/m? 0,9 ?C 3,2 km/h (1 Bft)
25.04.2024 00:27 2,4 ?C 2,0 ?C 3,2 ?C 89 % 1005,1 hPa 0,0 l/m? 1,2 km/h (1 Bft) N-NO 28 ? 0 min 0 W/m? 0,8 ?C 3,2 km/h (1 Bft)
25.04.2024 00:30 2,4 ?C 1,9 ?C 2,9 ?C 89 % 1005,1 hPa 0,0 l/m? 1,7 km/h (1 Bft) N-NO 28 ? 0 min 0 W/m? 0,8 ?C 3,2 km/h (1 Bft)
25.04.2024 00:33 2,4 ?C 1,8 ?C 3,2 ?C 89 % 1005,1 hPa 0,0 l/m? 2,5 km/h (1 Bft) NO 35 ? 0 min 0 W/m? 0,8 ?C 4,8 km/h (1 Bft)
25.04.2024 00:36 2,4 ?C 1,7 ?C 3,3 ?C 90 % 1005,1 hPa 0,0 l/m? 2,9 km/h (1 Bft) SO 146 ? 0 min 0 W/m? 0,9 ?C 4,8 km/h (1 Bft)
25.04.2024 00:39 2,6 ?C 1,7 ?C 3,3 ?C 90 % 1005,1 hPa 0,0 l/m? 2,3 km/h (1 Bft) S-SO 157 ? 0 min 0 W/m? 1,1 ?C 4,8 km/h (1 Bft)
25.04.2024 00:42 2,8 ?C 1,7 ?C 3,5 ?C 90 % 1005,0 hPa 0,0 l/m? 3,2 km/h (1 Bft) S-SO 156 ? 0 min 0 W/m? 1,3 ?C 4,8 km/h (1 Bft)
25.04.2024 00:45 3,0 ?C 2,0 ?C 3,7 ?C 90 % 1005,0 hPa 0,0 l/m? 4,6 km/h (1 Bft) S-SO 153 ? 0 min 0 W/m? 1,5 ?C 9,7 km/h (2 Bft)
25.04.2024 00:48 3,2 ?C 2,1 ?C 3,6 ?C 90 % 1005,0 hPa 0,0 l/m? 3,3 km/h (1 Bft) S-SO 153 ? 0 min 0 W/m? 1,7 ?C 6,4 km/h (2 Bft)
25.04.2024 00:51 3,3 ?C 2,1 ?C 3,7 ?C 90 % 1005,0 hPa 0,0 l/m? 4,6 km/h (1 Bft) SO 144 ? 0 min 0 W/m? 1,8 ?C 6,4 km/h (2 Bft)
25.04.2024 00:54 3,4 ?C 2,2 ?C 3,7 ?C 89 % 1004,9 hPa 0,0 l/m? 3,4 km/h (1 Bft) SO 141 ? 0 min 0 W/m? 1,8 ?C 4,8 km/h (1 Bft)
25.04.2024 00:57 3,4 ?C 2,1 ?C 3,5 ?C 89 % 1004,9 hPa 0,0 l/m? 3,2 km/h (1 Bft) SO 141 ? 0 min 0 W/m? 1,8 ?C 4,8 km/h (1 Bft)
25.04.2024 01:00 3,2 ?C 1,8 ?C 3,2 ?C 88 % 1004,9 hPa 0,0 l/m? 3,0 km/h (1 Bft) SO 135 ? 0 min 0 W/m? 1,4 ?C 4,8 km/h (1 Bft)
25.04.2024 01:03 2,9 ?C 1,6 ?C 2,8 ?C 88 % 1004,9 hPa 0,0 l/m? 2,2 km/h (1 Bft) O-SO 114 ? 0 min 0 W/m? 1,1 ?C 3,2 km/h (1 Bft)
25.04.2024 01:06 2,7 ?C 1,5 ?C 2,5 ?C 88 % 1004,8 hPa 0,0 l/m? 1,4 km/h (1 Bft) O-SO 113 ? 0 min 0 W/m? 0,9 ?C 3,2 km/h (1 Bft)
25.04.2024 01:09 2,4 ?C 1,6 ?C 2,4 ?C 88 % 1004,8 hPa 0,0 l/m? 1,3 km/h (1 Bft) O-SO 113 ? 0 min 0 W/m? 0,6 ?C 3,2 km/h (1 Bft)
25.04.2024 01:12 2,3 ?C 1,5 ?C 2,4 ?C 88 % 1004,7 hPa 0,0 l/m? 1,8 km/h (1 Bft) O-SO 113 ? 0 min 0 W/m? 0,5 ?C 3,2 km/h (1 Bft)
25.04.2024 01:15 2,2 ?C 1,5 ?C 2,5 ?C 88 % 1004,7 hPa 0,0 l/m? 2,4 km/h (1 Bft) O-SO 113 ? 0 min 0 W/m? 0,4 ?C 4,8 km/h (1 Bft)
25.04.2024 01:18 2,2 ?C 1,4 ?C 2,5 ?C 89 % 1004,7 hPa 0,0 l/m? 3,1 km/h (1 Bft) O-SO 113 ? 0 min 0 W/m? 0,6 ?C 4,8 km/h (1 Bft)
25.04.2024 01:21 2,2 ?C 1,4 ?C 2,5 ?C 89 % 1004,6 hPa 0,0 l/m? 3,0 km/h (1 Bft) O-SO 113 ? 0 min 0 W/m? 0,6 ?C 3,2 km/h (1 Bft)
25.04.2024 01:24 2,1 ?C 1,5 ?C 2,4 ?C 89 % 1004,5 hPa 0,0 l/m? 1,9 km/h (1 Bft) O-SO 113 ? 0 min 0 W/m? 0,5 ?C 3,2 km/h (1 Bft)
25.04.2024 01:27 1,9 ?C 1,4 ?C 2,3 ?C 88 % 1004,5 hPa 0,0 l/m? 0,5 km/h (0 Bft) O-SO 113 ? 0 min 0 W/m? 0,1 ?C 1,6 km/h (1 Bft)
25.04.2024 01:30 1,7 ?C 1,3 ?C 1,9 ?C 89 % 1004,6 hPa 0,0 l/m? 0,0 km/h (0 Bft) N 0 ? 0 min 0 W/m? 0,1 ?C 0,0 km/h (0 Bft)
25.04.2024 01:33 1,6 ?C 1,2 ?C 1,9 ?C 89 % 1004,6 hPa 0,0 l/m? 0,6 km/h (0 Bft) O-SO 113 ? 0 min 0 W/m? -0,0 ?C 1,6 km/h (1 Bft)
25.04.2024 01:36 1,6 ?C 1,2 ?C 2,0 ?C 89 % 1004,5 hPa 0,0 l/m? 0,6 km/h (0 Bft) O-SO 113 ? 0 min 0 W/m? -0,0 ?C 1,6 km/h (1 Bft)
25.04.2024 01:39 1,5 ?C 1,1 ?C 2,2 ?C 89 % 1004,5 hPa 0,0 l/m? 1,1 km/h (1 Bft) O-SO 113 ? 0 min 0 W/m? -0,1 ?C 3,2 km/h (1 Bft)
25.04.2024 01:42 1,5 ?C 1,0 ?C 2,0 ?C 89 % 1004,5 hPa 0,0 l/m? 1,1 km/h (1 Bft) O-SO 113 ? 0 min 0 W/m? -0,1 ?C 3,2 km/h (1 Bft)
25.04.2024 01:45 1,4 ?C 1,1 ?C 1,6 ?C 89 % 1004,5 hPa 0,0 l/m? 0,1 km/h (0 Bft) O-SO 113 ? 0 min 0 W/m? -0,2 ?C 1,6 km/h (1 Bft)
25.04.2024 01:48 1,4 ?C 1,2 ?C 1,6 ?C 89 % 1004,5 hPa 0,0 l/m? 0,0 km/h (0 Bft) N 0 ? 0 min 0 W/m? -0,2 ?C 0,0 km/h (0 Bft)
25.04.2024 01:51 1,3 ?C 1,3 ?C 1,4 ?C 89 % 1004,4 hPa 0,0 l/m? 0,0 km/h (0 Bft) O-SO 113 ? 0 min 0 W/m? -0,3 ?C 1,6 km/h (1 Bft)
25.04.2024 01:54 1,4 ?C 1,3 ?C 1,8 ?C 89 % 1004,4 hPa 0,0 l/m? 0,7 km/h (0 Bft) O-SO 113 ? 0 min 0 W/m? -0,2 ?C 3,2 km/h (1 Bft)
25.04.2024 01:57 1,4 ?C 1,3 ?C 1,9 ?C 90 % 1004,4 hPa 0,0 l/m? 0,8 km/h (0 Bft) O-SO 113 ? 0 min 0 W/m? -0,1 ?C 3,2 km/h (1 Bft)
25.04.2024 02:00 1,4 ?C 1,3 ?C 1,8 ?C 89 % 1004,4 hPa 0,0 l/m? 1,6 km/h (1 Bft) O-SO 113 ? 0 min 0 W/m? -0,2 ?C 3,2 km/h (1 Bft)
25.04.2024 02:03 1,5 ?C 1,2 ?C 1,7 ?C 90 % 1004,4 hPa 0,0 l/m? 0,0 km/h (0 Bft) O-SO 113 ? 0 min 0 W/m? 0,0 ?C 1,6 km/h (1 Bft)
25.04.2024 02:06 1,6 ?C 1,1 ?C 1,4 ?C 90 % 1004,4 hPa 0,0 l/m? 0,1 km/h (0 Bft) O-SO 113 ? 0 min 0 W/m? 0,1 ?C 1,6 km/h (1 Bft)
25.04.2024 02:09 1,5 ?C 1,1 ?C 1,3 ?C 89 % 1004,4 hPa 0,0 l/m? 0,0 km/h (0 Bft) N 0 ? 0 min 0 W/m? -0,1 ?C 0,0 km/h (0 Bft)
25.04.2024 02:12 1,4 ?C 1,0 ?C 1,6 ?C 89 % 1004,4 hPa 0,0 l/m? 0,0 km/h (0 Bft) N 0 ? 0 min 0 W/m? -0,2 ?C 0,0 km/h (0 Bft)
25.04.2024 02:15 1,3 ?C 1,1 ?C 1,6 ?C 89 % 1004,3 hPa 0,0 l/m? 0,0 km/h (0 Bft) N 0 ? 0 min 0 W/m? -0,3 ?C 0,0 km/h (0 Bft)
25.04.2024 02:18 1,3 ?C 1,0 ?C 1,6 ?C 90 % 1004,3 hPa 0,0 l/m? 0,0 km/h (0 Bft) O-SO 113 ? 0 min 0 W/m? -0,2 ?C 1,6 km/h (1 Bft)
25.04.2024 02:21 1,3 ?C 0,9 ?C 1,2 ?C 89 % 1004,3 hPa 0,0 l/m? 0,4 km/h (0 Bft) O-SO 113 ? 0 min 0 W/m? -0,3 ?C 1,6 km/h (1 Bft)
25.04.2024 02:24 1,3 ?C 0,9 ?C 1,2 ?C 90 % 1004,3 hPa 0,0 l/m? 0,7 km/h (0 Bft) O-SO 113 ? 0 min 0 W/m? -0,2 ?C 3,2 km/h (1 Bft)
25.04.2024 02:27 1,3 ?C 0,8 ?C 1,4 ?C 90 % 1004,2 hPa 0,0 l/m? 1,2 km/h (1 Bft) O-SO 113 ? 0 min 0 W/m? -0,2 ?C 3,2 km/h (1 Bft)
25.04.2024 02:30 1,3 ?C 0,8 ?C 1,5 ?C 89 % 1004,2 hPa 0,0 l/m? 0,1 km/h (0 Bft) O-SO 113 ? 0 min 0 W/m? -0,3 ?C 1,6 km/h (1 Bft)
25.04.2024 02:33 1,1 ?C 0,7 ?C 1,2 ?C 89 % 1004,2 hPa 0,0 l/m? 0,1 km/h (0 Bft) O-SO 113 ? 0 min 0 W/m? -0,5 ?C 1,6 km/h (1 Bft)
25.04.2024 02:36 1,1 ?C 0,8 ?C 1,3 ?C 90 % 1004,2 hPa 0,0 l/m? 0,8 km/h (0 Bft) O-SO 113 ? 0 min 0 W/m? -0,4 ?C 3,2 km/h (1 Bft)
25.04.2024 02:39 1,0 ?C 0,7 ?C 1,3 ?C 90 % 1004,2 hPa 0,0 l/m? 0,6 km/h (0 Bft) O-SO 113 ? 0 min 0 W/m? -0,5 ?C 1,6 km/h (1 Bft)
25.04.2024 02:42 1,0 ?C 0,7 ?C 1,2 ?C 90 % 1004,1 hPa 0,0 l/m? 1,0 km/h (0 Bft) O-SO 113 ? 0 min 0 W/m? -0,5 ?C 3,2 km/h (1 Bft)
25.04.2024 02:45 0,9 ?C 0,6 ?C 1,2 ?C 89 % 1004,2 hPa 0,0 l/m? 0,2 km/h (0 Bft) O-SO 113 ? 0 min 0 W/m? -0,7 ?C 1,6 km/h (1 Bft)
25.04.2024 02:48 0,8 ?C 0,4 ?C 1,1 ?C 90 % 1004,2 hPa 0,0 l/m? 0,1 km/h (0 Bft) O-SO 113 ? 0 min 0 W/m? -0,6 ?C 1,6 km/h (1 Bft)
25.04.2024 02:51 0,8 ?C 0,3 ?C 0,8 ?C 90 % 1004,1 hPa 0,0 l/m? 0,4 km/h (0 Bft) O-SO 113 ? 0 min 0 W/m? -0,6 ?C 1,6 km/h (1 Bft)
25.04.2024 02:54 0,7 ?C 0,3 ?C 0,9 ?C 90 % 1004,2 hPa 0,0 l/m? 0,8 km/h (0 Bft) O-SO 113 ? 0 min 0 W/m? -0,7 ?C 3,2 km/h (1 Bft)
25.04.2024 02:57 0,6 ?C 0,3 ?C 0,7 ?C 90 % 1004,2 hPa 0,0 l/m? 0,3 km/h (0 Bft) O-SO 113 ? 0 min 0 W/m? -0,8 ?C 1,6 km/h (1 Bft)
25.04.2024 03:00 0,6 ?C 0,2 ?C 0,7 ?C 90 % 1004,2 hPa 0,0 l/m? 0,8 km/h (0 Bft) O-SO 113 ? 0 min 0 W/m? -0,8 ?C 3,2 km/h (1 Bft)
25.04.2024 03:03 0,6 ?C 0,2 ?C 0,4 ?C 90 % 1004,2 hPa 0,0 l/m? 0,1 km/h (0 Bft) O-SO 113 ? 0 min 0 W/m? -0,8 ?C 1,6 km/h (1 Bft)
25.04.2024 03:06 0,6 ?C 0,2 ?C 0,6 ?C 90 % 1004,2 hPa 0,0 l/m? 1,0 km/h (0 Bft) O-SO 113 ? 0 min 0 W/m? -0,8 ?C 3,2 km/h (1 Bft)
25.04.2024 03:09 0,6 ?C 0,3 ?C 1,1 ?C 90 % 1004,1 hPa 0,0 l/m? 1,4 km/h (1 Bft) O-SO 113 ? 0 min 0 W/m? -0,8 ?C 3,2 km/h (1 Bft)
25.04.2024 03:12 0,6 ?C 0,2 ?C 0,9 ?C 90 % 1004,1 hPa 0,0 l/m? 0,4 km/h (0 Bft) O-SO 113 ? 0 min 0 W/m? -0,8 ?C 1,6 km/h (1 Bft)
25.04.2024 03:15 0,6 ?C 0,3 ?C 0,9 ?C 90 % 1004,1 hPa 0,0 l/m? 0,0 km/h (0 Bft) N 0 ? 0 min 0 W/m? -0,8 ?C 0,0 km/h (0 Bft)
25.04.2024 03:18 0,6 ?C 0,4 ?C 0,8 ?C 90 % 1004,1 hPa 0,0 l/m? 0,0 km/h (0 Bft) N 0 ? 0 min 0 W/m? -0,8 ?C 0,0 km/h (0 Bft)
25.04.2024 03:21 0,6 ?C 0,4 ?C 0,8 ?C 90 % 1004,0 hPa 0,0 l/m? 0,0 km/h (0 Bft) N 0 ? 0 min 0 W/m? -0,8 ?C 0,0 km/h (0 Bft)
25.04.2024 03:24 0,6 ?C 0,5 ?C 0,8 ?C 90 % 1004,1 hPa 0,0 l/m? 0,0 km/h (0 Bft) N 0 ? 0 min 0 W/m? -0,8 ?C 0,0 km/h (0 Bft)
25.04.2024 03:27 0,5 ?C 0,4 ?C 1,1 ?C 90 % 1004,1 hPa 0,0 l/m? 0,6 km/h (0 Bft) O-SO 113 ? 0 min 0 W/m? -0,9 ?C 3,2 km/h (1 Bft)
25.04.2024 03:30 0,5 ?C 0,5 ?C 1,0 ?C 90 % 1004,0 hPa 0,0 l/m? 0,5 km/h (0 Bft) O-SO 113 ? 0 min 0 W/m? -0,9 ?C 1,6 km/h (1 Bft)
25.04.2024 03:33 0,5 ?C 0,4 ?C 1,2 ?C 90 % 1004,0 hPa 0,0 l/m? 1,6 km/h (1 Bft) O-SO 113 ? 0 min 0 W/m? -0,9 ?C 3,2 km/h (1 Bft)
25.04.2024 03:36 0,5 ?C 0,4 ?C 1,1 ?C 90 % 1004,0 hPa 0,0 l/m? 0,9 km/h (0 Bft) O-SO 113 ? 0 min 0 W/m? -0,9 ?C 1,6 km/h (1 Bft)
25.04.2024 03:39 0,4 ?C 0,5 ?C 0,8 ?C 90 % 1004,0 hPa 0,0 l/m? 0,6 km/h (0 Bft) O-SO 113 ? 0 min 0 W/m? -1,0 ?C 1,6 km/h (1 Bft)
25.04.2024 03:42 0,5 ?C 0,3 ?C 1,0 ?C 90 % 1003,9 hPa 0,0 l/m? 0,7 km/h (0 Bft) O-SO 113 ? 0 min 0 W/m? -0,9 ?C 1,6 km/h (1 Bft)
25.04.2024 03:45 0,4 ?C 0,3 ?C 1,0 ?C 90 % 1003,9 hPa 0,0 l/m? 0,7 km/h (0 Bft) O-SO 113 ? 0 min 0 W/m? -1,0 ?C 1,6 km/h (1 Bft)
25.04.2024 03:48 0,4 ?C 0,3 ?C 1,0 ?C 90 % 1003,9 hPa 0,0 l/m? 1,5 km/h (1 Bft) O-SO 113 ? 0 min 0 W/m? -1,0 ?C 3,2 km/h (1 Bft)
25.04.2024 03:51 0,4 ?C 0,3 ?C 0,9 ?C 90 % 1004,0 hPa 0,0 l/m? 1,3 km/h (1 Bft) O-SO 113 ? 0 min 0 W/m? -1,0 ?C 3,2 km/h (1 Bft)
25.04.2024 03:54 0,6 ?C 0,3 ?C 0,9 ?C 91 % 1004,0 hPa 0,0 l/m? 1,4 km/h (1 Bft) O-SO 113 ? 0 min 0 W/m? -0,7 ?C 1,6 km/h (1 Bft)
25.04.2024 03:57 0,5 ?C 0,1 ?C 0,9 ?C 90 % 1003,9 hPa 0,0 l/m? 0,3 km/h (0 Bft) O-SO 113 ? 0 min 0 W/m? -0,9 ?C 1,6 km/h (1 Bft)
25.04.2024 04:00 0,5 ?C 0,1 ?C 1,0 ?C 90 % 1003,9 hPa 0,0 l/m? 0,8 km/h (0 Bft) O-SO 113 ? 0 min 0 W/m? -0,9 ?C 1,6 km/h (1 Bft)
25.04.2024 04:03 0,4 ?C 0,1 ?C 1,1 ?C 90 % 1003,9 hPa 0,0 l/m? 1,4 km/h (1 Bft) O-SO 113 ? 0 min 0 W/m? -1,0 ?C 3,2 km/h (1 Bft)
25.04.2024 04:06 0,4 ?C 0,0 ?C 1,2 ?C 90 % 1003,9 hPa 0,0 l/m? 2,0 km/h (1 Bft) O-SO 118 ? 0 min 0 W/m? -1,0 ?C 4,8 km/h (1 Bft)
25.04.2024 04:09 0,4 ?C 0,0 ?C 0,8 ?C 91 % 1003,9 hPa 0,0 l/m? 0,8 km/h (0 Bft) SO 128 ? 0 min 0 W/m? -0,9 ?C 3,2 km/h (1 Bft)
25.04.2024 04:12 0,6 ?C 0,0 ?C 0,7 ?C 91 % 1004,0 hPa 0,0 l/m? 0,8 km/h (0 Bft) SO 129 ? 0 min 0 W/m? -0,7 ?C 3,2 km/h (1 Bft)
25.04.2024 04:15 0,6 ?C 0,1 ?C 0,9 ?C 91 % 1004,0 hPa 0,0 l/m? 0,4 km/h (0 Bft) SO 129 ? 0 min 0 W/m? -0,7 ?C 3,2 km/h (1 Bft)
25.04.2024 04:18 0,5 ?C 0,1 ?C 0,9 ?C 90 % 1004,0 hPa 0,0 l/m? 0,1 km/h (0 Bft) SO 129 ? 0 min 0 W/m? -0,9 ?C 1,6 km/h (1 Bft)
25.04.2024 04:21 0,5 ?C 0,0 ?C 1,0 ?C 91 % 1004,0 hPa 0,0 l/m? 1,1 km/h (1 Bft) SO 129 ? 0 min 0 W/m? -0,8 ?C 3,2 km/h (1 Bft)
25.04.2024 04:24 0,4 ?C 0,0 ?C 0,8 ?C 90 % 1004,0 hPa 0,0 l/m? 0,2 km/h (0 Bft) SO 129 ? 0 min 0 W/m? -1,0 ?C 1,6 km/h (1 Bft)
25.04.2024 04:27 0,3 ?C -0,1 ?C 0,6 ?C 90 % 1004,0 hPa 0,0 l/m? 0,0 km/h (0 Bft) SO 129 ? 0 min 0 W/m? -1,1 ?C 1,6 km/h (1 Bft)
25.04.2024 04:30 0,1 ?C -0,1 ?C 0,6 ?C 90 % 1004,0 hPa 0,0 l/m? 0,4 km/h (0 Bft) SO 129 ? 0 min 0 W/m? -1,3 ?C 1,6 km/h (1 Bft)
25.04.2024 04:33 0,0 ?C -0,1 ?C 0,5 ?C 90 % 1004,0 hPa 0,0 l/m? 0,3 km/h (0 Bft) SO 129 ? 0 min 0 W/m? -1,4 ?C 1,6 km/h (1 Bft)
25.04.2024 04:36 -0,1 ?C -0,1 ?C 0,4 ?C 90 % 1004,0 hPa 0,0 l/m? 1,1 km/h (1 Bft) SO 129 ? 0 min 0 W/m? -1,5 ?C 1,6 km/h (1 Bft)
25.04.2024 04:39 -0,1 ?C -0,1 ?C 0,4 ?C 90 % 1004,0 hPa 0,0 l/m? 0,8 km/h (0 Bft) SO 129 ? 0 min 0 W/m? -1,5 ?C 1,6 km/h (1 Bft)
25.04.2024 04:42 -0,1 ?C -0,1 ?C 0,5 ?C 90 % 1004,0 hPa 0,0 l/m? 1,5 km/h (1 Bft) SO 129 ? 0 min 0 W/m? -1,5 ?C 3,2 km/h (1 Bft)
25.04.2024 04:45 -0,2 ?C -0,1 ?C 0,3 ?C 90 % 1003,9 hPa 0,0 l/m? 0,7 km/h (0 Bft) SO 129 ? 0 min 0 W/m? -1,6 ?C 1,6 km/h (1 Bft)
25.04.2024 04:48 -0,2 ?C -0,2 ?C 0,4 ?C 91 % 1003,9 hPa 0,0 l/m? 0,7 km/h (0 Bft) SO 129 ? 0 min 0 W/m? -1,5 ?C 1,6 km/h (1 Bft)
25.04.2024 04:51 -0,2 ?C -0,2 ?C 0,6 ?C 91 % 1003,9 hPa 0,0 l/m? 1,3 km/h (1 Bft) SO 129 ? 0 min 0 W/m? -1,5 ?C 3,2 km/h (1 Bft)
25.04.2024 04:54 -0,2 ?C -0,2 ?C 0,5 ?C 91 % 1003,9 hPa 0,0 l/m? 0,7 km/h (0 Bft) SO 129 ? 0 min 0 W/m? -1,5 ?C 1,6 km/h (1 Bft)
25.04.2024 04:57 -0,2 ?C -0,2 ?C 0,2 ?C 91 % 1003,8 hPa 0,0 l/m? 0,1 km/h (0 Bft) SO 129 ? 0 min 0 W/m? -1,5 ?C 1,6 km/h (1 Bft)
25.04.2024 05:00 -0,2 ?C -0,2 ?C -0,2 ?C 91 % 1003,9 hPa 0,0 l/m? 0,1 km/h (0 Bft) SO 129 ? 0 min 0 W/m? -1,5 ?C 1,6 km/h (1 Bft)
25.04.2024 05:03 -0,3 ?C -0,2 ?C -0,2 ?C 91 % 1003,8 hPa 0,0 l/m? 0,6 km/h (0 Bft) SO 129 ? 0 min 0 W/m? -1,6 ?C 1,6 km/h (1 Bft)
25.04.2024 05:06 -0,3 ?C -0,3 ?C 0,1 ?C 91 % 1003,9 hPa 0,0 l/m? 0,4 km/h (0 Bft) SO 129 ? 0 min 0 W/m? -1,6 ?C 1,6 km/h (1 Bft)
25.04.2024 05:09 -0,4 ?C -0,3 ?C 0,1 ?C 91 % 1003,9 hPa 0,0 l/m? 0,5 km/h (0 Bft) SO 129 ? 0 min 0 W/m? -1,7 ?C 1,6 km/h (1 Bft)
25.04.2024 05:12 -0,4 ?C -0,3 ?C 0,2 ?C 91 % 1003,9 hPa 0,0 l/m? 0,2 km/h (0 Bft) SO 129 ? 0 min 0 W/m? -1,7 ?C 1,6 km/h (1 Bft)
25.04.2024 05:15 -0,4 ?C -0,3 ?C 0,3 ?C 91 % 1003,8 hPa 0,0 l/m? 0,1 km/h (0 Bft) SO 129 ? 0 min 0 W/m? -1,7 ?C 1,6 km/h (1 Bft)
25.04.2024 05:18 -0,4 ?C -0,3 ?C 0,2 ?C 91 % 1003,8 hPa 0,0 l/m? 0,1 km/h (0 Bft) SO 129 ? 0 min 0 W/m? -1,7 ?C 1,6 km/h (1 Bft)
25.04.2024 05:21 -0,3 ?C -0,4 ?C -0,3 ?C 91 % 1003,8 hPa 0,0 l/m? 3,0 km/h (1 Bft) O-SO 110 ? 0 min 0 W/m? -1,6 ?C 4,8 km/h (1 Bft)
25.04.2024 05:24 -0,2 ?C -0,3 ?C -0,4 ?C 91 % 1003,8 hPa 0,0 l/m? 0,9 km/h (0 Bft) O 98 ? 0 min 0 W/m? -1,5 ?C 3,2 km/h (1 Bft)
25.04.2024 05:27 -0,3 ?C -0,3 ?C -0,6 ?C 91 % 1003,8 hPa 0,0 l/m? 0,0 km/h (0 Bft) N 0 ? 0 min 0 W/m? -1,6 ?C 0,0 km/h (0 Bft)
25.04.2024 05:30 -0,4 ?C -0,3 ?C -0,9 ?C 91 % 1003,9 hPa 0,0 l/m? 1,4 km/h (1 Bft) O-SO 110 ? 0 min 0 W/m? -1,7 ?C 3,2 km/h (1 Bft)
25.04.2024 05:33 -0,3 ?C -0,3 ?C -0,7 ?C 91 % 1003,9 hPa 0,0 l/m? 1,2 km/h (1 Bft) O-SO 112 ? 0 min 1 W/m? -1,6 ?C 3,2 km/h (1 Bft)
25.04.2024 05:36 -0,2 ?C -0,3 ?C -0,5 ?C 91 % 1003,9 hPa 0,0 l/m? 1,9 km/h (1 Bft) O-SO 114 ? 0 min 2 W/m? -1,5 ?C 3,2 km/h (1 Bft)
25.04.2024 05:39 0,0 ?C -0,2 ?C -0,4 ?C 91 % 1003,9 hPa 0,0 l/m? 0,9 km/h (0 Bft) SO 129 ? 0 min 2 W/m? -1,3 ?C 3,2 km/h (1 Bft)
25.04.2024 05:42 0,0 ?C -0,2 ?C -0,4 ?C 91 % 1003,8 hPa 0,0 l/m? 1,3 km/h (1 Bft) SO 130 ? 0 min 2 W/m? -1,3 ?C 3,2 km/h (1 Bft)
25.04.2024 05:45 0,0 ?C -0,3 ?C -0,1 ?C 91 % 1003,9 hPa 0,0 l/m? 1,8 km/h (1 Bft) SO 130 ? 0 min 3 W/m? -1,3 ?C 3,2 km/h (1 Bft)
25.04.2024 05:48 0,1 ?C -0,4 ?C 0,0 ?C 91 % 1003,9 hPa 0,0 l/m? 0,9 km/h (0 Bft) SO 130 ? 0 min 4 W/m? -1,2 ?C 3,2 km/h (1 Bft)
25.04.2024 05:51 0,1 ?C -0,4 ?C 0,0 ?C 91 % 1003,9 hPa 0,0 l/m? 0,2 km/h (0 Bft) SO 130 ? 0 min 4 W/m? -1,2 ?C 1,6 km/h (1 Bft)
25.04.2024 05:54 -0,1 ?C -0,3 ?C 0,2 ?C 91 % 1003,9 hPa 0,0 l/m? 0,5 km/h (0 Bft) SO 130 ? 0 min 5 W/m? -1,4 ?C 1,6 km/h (1 Bft)
25.04.2024 05:57 -0,2 ?C -0,4 ?C 0,3 ?C 91 % 1003,9 hPa 0,0 l/m? 0,3 km/h (0 Bft) SO 130 ? 0 min 5 W/m? -1,5 ?C 1,6 km/h (1 Bft)
25.04.2024 06:00 -0,2 ?C -0,3 ?C 0,5 ?C 91 % 1003,9 hPa 0,0 l/m? 0,0 km/h (0 Bft) N 0 ? 0 min 7 W/m? -1,5 ?C 0,0 km/h (0 Bft)
25.04.2024 06:03 -0,3 ?C -0,3 ?C 1,2 ?C 91 % 1003,9 hPa 0,0 l/m? 0,0 km/h (0 Bft) N 0 ? 0 min 8 W/m? -1,6 ?C 0,0 km/h (0 Bft)
25.04.2024 06:06 -0,4 ?C -0,3 ?C 1,4 ?C 91 % 1003,9 hPa 0,0 l/m? 0,1 km/h (0 Bft) SO 130 ? 0 min 9 W/m? -1,7 ?C 1,6 km/h (1 Bft)
25.04.2024 06:09 -0,5 ?C -0,4 ?C 1,5 ?C 91 % 1003,9 hPa 0,0 l/m? 1,1 km/h (1 Bft) SO 130 ? 0 min 10 W/m? -1,8 ?C 3,2 km/h (1 Bft)
25.04.2024 06:12 -0,6 ?C -0,3 ?C 1,8 ?C 91 % 1004,0 hPa 0,0 l/m? 1,1 km/h (1 Bft) SO 130 ? 0 min 11 W/m? -1,9 ?C 1,6 km/h (1 Bft)
25.04.2024 06:15 -0,5 ?C -0,3 ?C 2,0 ?C 91 % 1004,0 hPa 0,0 l/m? 2,3 km/h (1 Bft) SO 130 ? 0 min 12 W/m? -1,8 ?C 3,2 km/h (1 Bft)
25.04.2024 06:18 -0,5 ?C -0,3 ?C 2,4 ?C 91 % 1004,0 hPa 0,0 l/m? 2,0 km/h (1 Bft) SO 130 ? 0 min 12 W/m? -1,8 ?C 3,2 km/h (1 Bft)
25.04.2024 06:21 -0,4 ?C -0,3 ?C 2,9 ?C 91 % 1003,9 hPa 0,0 l/m? 1,9 km/h (1 Bft) SO 130 ? 0 min 13 W/m? -1,7 ?C 3,2 km/h (1 Bft)
25.04.2024 06:24 -0,4 ?C -0,2 ?C 3,1 ?C 91 % 1004,0 hPa 0,0 l/m? 1,1 km/h (1 Bft) SO 129 ? 0 min 14 W/m? -1,7 ?C 3,2 km/h (1 Bft)
25.04.2024 06:27 -0,3 ?C -0,1 ?C 4,1 ?C 91 % 1004,0 hPa 0,0 l/m? 0,3 km/h (0 Bft) SO 129 ? 0 min 15 W/m? -1,6 ?C 1,6 km/h (1 Bft)
25.04.2024 06:30 -0,3 ?C -0,1 ?C 5,2 ?C 91 % 1004,0 hPa 0,0 l/m? 0,0 km/h (0 Bft) N 0 ? 0 min 16 W/m? -1,6 ?C 0,0 km/h (0 Bft)
25.04.2024 06:33 -0,2 ?C -0,1 ?C 6,1 ?C 91 % 1004,0 hPa 0,0 l/m? 0,8 km/h (0 Bft) SO 129 ? 0 min 18 W/m? -1,5 ?C 3,2 km/h (1 Bft)
25.04.2024 06:36 -0,2 ?C 0,0 ?C 6,7 ?C 91 % 1004,0 hPa 0,0 l/m? 0,2 km/h (0 Bft) SO 129 ? 0 min 18 W/m? -1,5 ?C 1,6 km/h (1 Bft)
25.04.2024 06:39 -0,1 ?C 0,1 ?C 7,7 ?C 91 % 1004,0 hPa 0,0 l/m? 0,0 km/h (0 Bft) N 0 ? 0 min 19 W/m? -1,4 ?C 0,0 km/h (0 Bft)
25.04.2024 06:42 -0,1 ?C 0,1 ?C 10,3 ?C 91 % 1004,0 hPa 0,0 l/m? 0,0 km/h (0 Bft) N 0 ? 0 min 21 W/m? -1,4 ?C 0,0 km/h (0 Bft)
25.04.2024 06:45 0,0 ?C 0,1 ?C 9,3 ?C 91 % 1004,0 hPa 0,0 l/m? 0,1 km/h (0 Bft) SO 129 ? 0 min 22 W/m? -1,3 ?C 1,6 km/h (1 Bft)
25.04.2024 06:48 0,1 ?C 0,1 ?C 7,7 ?C 91 % 1004,1 hPa 0,0 l/m? 0,6 km/h (0 Bft) SO 129 ? 0 min 23 W/m? -1,2 ?C 1,6 km/h (1 Bft)
25.04.2024 06:51 0,2 ?C 0,1 ?C 6,8 ?C 91 % 1004,1 hPa 0,0 l/m? 0,5 km/h (0 Bft) SO 129 ? 0 min 24 W/m? -1,1 ?C 1,6 km/h (1 Bft)
25.04.2024 06:54 0,3 ?C 0,2 ?C 6,9 ?C 91 % 1004,0 hPa 0,0 l/m? 0,4 km/h (0 Bft) SO 129 ? 0 min 25 W/m? -1,0 ?C 1,6 km/h (1 Bft)
25.04.2024 06:57 0,3 ?C 0,2 ?C 5,8 ?C 91 % 1004,0 hPa 0,0 l/m? 1,2 km/h (1 Bft) SO 129 ? 0 min 27 W/m? -1,0 ?C 3,2 km/h (1 Bft)
25.04.2024 07:00 0,3 ?C 0,3 ?C 6,7 ?C 91 % 1004,0 hPa 0,0 l/m? 0,9 km/h (0 Bft) SO 129 ? 0 min 29 W/m? -1,0 ?C 3,2 km/h (1 Bft)
25.04.2024 07:03 0,3 ?C 0,4 ?C 6,8 ?C 91 % 1004,0 hPa 0,0 l/m? 1,9 km/h (1 Bft) SO 129 ? 0 min 32 W/m? -1,0 ?C 3,2 km/h (1 Bft)
25.04.2024 07:06 0,2 ?C 0,5 ?C 6,6 ?C 91 % 1004,0 hPa 0,0 l/m? 1,3 km/h (1 Bft) SO 129 ? 0 min 36 W/m? -1,1 ?C 3,2 km/h (1 Bft)
25.04.2024 07:09 0,2 ?C 0,6 ?C 8,4 ?C 91 % 1004,0 hPa 0,0 l/m? 0,5 km/h (0 Bft) SO 129 ? 0 min 35 W/m? -1,1 ?C 1,6 km/h (1 Bft)
25.04.2024 07:12 0,2 ?C 0,6 ?C 12,3 ?C 91 % 1004,0 hPa 0,0 l/m? 0,0 km/h (0 Bft) N 0 ? 0 min 34 W/m? -1,1 ?C 0,0 km/h (0 Bft)
25.04.2024 07:15 0,3 ?C 0,6 ?C 12,0 ?C 91 % 1004,0 hPa 0,0 l/m? 0,8 km/h (0 Bft) SO 129 ? 0 min 29 W/m? -1,0 ?C 3,2 km/h (1 Bft)
25.04.2024 07:18 0,4 ?C 0,6 ?C 11,9 ?C 91 % 1004,0 hPa 0,0 l/m? 0,7 km/h (0 Bft) SO 129 ? 0 min 27 W/m? -0,9 ?C 1,6 km/h (1 Bft)
25.04.2024 07:21 0,5 ?C 0,6 ?C 12,5 ?C 91 % 1004,0 hPa 0,0 l/m? 1,1 km/h (1 Bft) SO 129 ? 0 min 27 W/m? -0,8 ?C 1,6 km/h (1 Bft)
25.04.2024 07:24 0,6 ?C 0,7 ?C 11,5 ?C 92 % 1004,0 hPa 0,0 l/m? 2,1 km/h (1 Bft) SO 129 ? 0 min 30 W/m? -0,5 ?C 3,2 km/h (1 Bft)
25.04.2024 07:27 0,8 ?C 0,8 ?C 11,0 ?C 92 % 1004,1 hPa 0,0 l/m? 2,6 km/h (1 Bft) SO 129 ? 0 min 38 W/m? -0,3 ?C 4,8 km/h (1 Bft)
25.04.2024 07:30 1,0 ?C 0,9 ?C 11,0 ?C 92 % 1004,1 hPa 0,0 l/m? 3,1 km/h (1 Bft) SO 129 ? 0 min 53 W/m? -0,2 ?C 4,8 km/h (1 Bft)
25.04.2024 07:33 1,1 ?C 1,0 ?C 11,1 ?C 92 % 1004,1 hPa 0,0 l/m? 2,9 km/h (1 Bft) SO 129 ? 0 min 77 W/m? -0,1 ?C 4,8 km/h (1 Bft)
25.04.2024 07:36 1,3 ?C 1,1 ?C 11,0 ?C 92 % 1004,1 hPa 0,0 l/m? 3,3 km/h (1 Bft) O-SO 122 ? 0 min 127 W/m? 0,1 ?C 4,8 km/h (1 Bft)
25.04.2024 07:39 1,5 ?C 1,3 ?C 11,1 ?C 92 % 1004,1 hPa 0,0 l/m? 3,3 km/h (1 Bft) O-SO 116 ? 0 min 151 W/m? 0,3 ?C 4,8 km/h (1 Bft)
25.04.2024 07:45 1,9 ?C 1,8 ?C 11,5 ?C 92 % 1004,1 hPa 0,0 l/m? 3,6 km/h (1 Bft) O-SO 120 ? 6 min 186 W/m? 0,7 ?C 6,4 km/h (2 Bft)
25.04.2024 07:48 2,1 ?C 2,0 ?C 10,7 ?C 92 % 1004,1 hPa 0,0 l/m? 4,1 km/h (1 Bft) O-SO 123 ? 3 min 190 W/m? 0,9 ?C 6,4 km/h (2 Bft)
25.04.2024 07:51 2,2 ?C 2,1 ?C 10,4 ?C 92 % 1004,2 hPa 0,0 l/m? 4,9 km/h (1 Bft) O-SO 119 ? 3 min 195 W/m? 1,0 ?C 8,0 km/h (2 Bft)
25.04.2024 07:54 2,5 ?C 2,4 ?C 11,5 ?C 92 % 1004,2 hPa 0,0 l/m? 3,6 km/h (1 Bft) SO 125 ? 3 min 202 W/m? 1,3 ?C 6,4 km/h (2 Bft)
25.04.2024 07:57 2,7 ?C 2,7 ?C 11,2 ?C 92 % 1004,2 hPa 0,0 l/m? 5,1 km/h (1 Bft) O-SO 121 ? 3 min 211 W/m? 1,5 ?C 8,0 km/h (2 Bft)
25.04.2024 08:00 2,9 ?C 3,0 ?C 11,6 ?C 91 % 1004,1 hPa 0,0 l/m? 4,0 km/h (1 Bft) SO 133 ? 3 min 220 W/m? 1,6 ?C 8,0 km/h (2 Bft)
25.04.2024 08:03 3,1 ?C 3,2 ?C 11,6 ?C 91 % 1004,1 hPa 0,0 l/m? 5,3 km/h (1 Bft) O-SO 123 ? 3 min 230 W/m? 1,8 ?C 8,0 km/h (2 Bft)
25.04.2024 08:06 3,2 ?C 3,7 ?C 12,6 ?C 91 % 1004,1 hPa 0,0 l/m? 3,5 km/h (1 Bft) O-SO 123 ? 3 min 244 W/m? 1,9 ?C 6,4 km/h (2 Bft)
25.04.2024 08:09 3,4 ?C 4,3 ?C 12,5 ?C 91 % 1004,1 hPa 0,0 l/m? 3,8 km/h (1 Bft) SO 131 ? 3 min 257 W/m? 2,1 ?C 6,4 km/h (2 Bft)
25.04.2024 08:12 3,7 ?C 4,9 ?C 13,1 ?C 90 % 1004,1 hPa 0,0 l/m? 3,5 km/h (1 Bft) SO 140 ? 3 min 262 W/m? 2,2 ?C 6,4 km/h (2 Bft)
25.04.2024 08:15 3,8 ?C 5,9 ?C 11,8 ?C 90 % 1004,1 hPa 0,0 l/m? 4,9 km/h (1 Bft) S-SO 153 ? 3 min 268 W/m? 2,3 ?C 8,0 km/h (2 Bft)
25.04.2024 08:18 3,9 ?C 7,3 ?C 10,9 ?C 89 % 1004,1 hPa 0,0 l/m? 5,2 km/h (1 Bft) SO 134 ? 3 min 224 W/m? 2,3 ?C 8,0 km/h (2 Bft)
25.04.2024 08:21 4,2 ?C 7,8 ?C 9,1 ?C 89 % 1004,0 hPa 0,0 l/m? 4,8 km/h (1 Bft) SO 137 ? 0 min 148 W/m? 2,6 ?C 8,0 km/h (2 Bft)
25.04.2024 08:24 4,2 ?C 7,3 ?C 7,6 ?C 88 % 1004,0 hPa 0,0 l/m? 4,4 km/h (1 Bft) S-SO 165 ? 0 min 149 W/m? 2,4 ?C 6,4 km/h (2 Bft)
25.04.2024 08:27 4,2 ?C 7,5 ?C 8,1 ?C 88 % 1004,1 hPa 0,0 l/m? 3,0 km/h (1 Bft) S 177 ? 0 min 130 W/m? 2,4 ?C 4,8 km/h (1 Bft)
25.04.2024 08:30 4,2 ?C 7,3 ?C 7,3 ?C 88 % 1004,0 hPa 0,0 l/m? 4,0 km/h (1 Bft) SO 141 ? 0 min 105 W/m? 2,4 ?C 6,4 km/h (2 Bft)
25.04.2024 08:33 4,3 ?C 7,4 ?C 7,1 ?C 88 % 1004,1 hPa 0,0 l/m? 3,7 km/h (1 Bft) S-SO 164 ? 0 min 94 W/m? 2,5 ?C 6,4 km/h (2 Bft)
25.04.2024 08:36 4,3 ?C 6,9 ?C 6,2 ?C 87 % 1004,1 hPa 0,0 l/m? 4,2 km/h (1 Bft) S-SO 151 ? 0 min 90 W/m? 2,3 ?C 8,0 km/h (2 Bft)
25.04.2024 08:39 4,3 ?C 6,8 ?C 6,1 ?C 88 % 1004,1 hPa 0,0 l/m? 4,6 km/h (1 Bft) S-SO 152 ? 0 min 86 W/m? 2,5 ?C 8,0 km/h (2 Bft)
25.04.2024 08:42 4,4 ?C 7,0 ?C 6,2 ?C 88 % 1004,1 hPa 0,0 l/m? 4,5 km/h (1 Bft) S-SO 148 ? 0 min 94 W/m? 2,6 ?C 6,4 km/h (2 Bft)
25.04.2024 08:45 4,6 ?C 7,1 ?C 6,1 ?C 88 % 1004,1 hPa 0,0 l/m? 4,5 km/h (1 Bft) SO 137 ? 0 min 107 W/m? 2,8 ?C 8,0 km/h (2 Bft)
25.04.2024 08:48 4,6 ?C 7,2 ?C 6,3 ?C 87 % 1004,1 hPa 0,0 l/m? 5,7 km/h (2 Bft) S-SO 151 ? 0 min 119 W/m? 2,6 ?C 8,0 km/h (2 Bft)
25.04.2024 08:51 4,6 ?C 7,1 ?C 6,1 ?C 87 % 1004,1 hPa 0,0 l/m? 6,4 km/h (2 Bft) SO 144 ? 0 min 125 W/m? 2,6 ?C 9,7 km/h (2 Bft)
25.04.2024 08:54 4,7 ?C 7,4 ?C 6,2 ?C 87 % 1004,1 hPa 0,0 l/m? 6,9 km/h (2 Bft) S-SO 154 ? 0 min 119 W/m? 2,7 ?C 9,7 km/h (2 Bft)
25.04.2024 08:57 4,8 ?C 7,1 ?C 6,4 ?C 87 % 1004,1 hPa 0,0 l/m? 5,2 km/h (1 Bft) S-SO 154 ? 0 min 105 W/m? 2,8 ?C 8,0 km/h (2 Bft)
25.04.2024 09:00 4,8 ?C 7,1 ?C 6,3 ?C 87 % 1004,1 hPa 0,0 l/m? 4,8 km/h (1 Bft) S-SO 157 ? 0 min 90 W/m? 2,8 ?C 11,3 km/h (2 Bft)
25.04.2024 09:03 4,9 ?C 6,7 ?C 5,9 ?C 87 % 1004,1 hPa 0,0 l/m? 6,4 km/h (2 Bft) S-SO 166 ? 0 min 63 W/m? 2,9 ?C 11,3 km/h (2 Bft)
25.04.2024 09:06 4,8 ?C 6,1 ?C 5,5 ?C 87 % 1004,1 hPa 0,0 l/m? 6,7 km/h (2 Bft) S-SO 160 ? 0 min 73 W/m? 2,8 ?C 12,9 km/h (3 Bft)
25.04.2024 09:09 4,8 ?C 6,3 ?C 5,7 ?C 86 % 1004,1 hPa 0,0 l/m? 7,5 km/h (2 Bft) S 171 ? 0 min 94 W/m? 2,7 ?C 12,9 km/h (3 Bft)
25.04.2024 09:12 4,8 ?C 6,7 ?C 6,4 ?C 87 % 1004,1 hPa 0,0 l/m? 4,3 km/h (1 Bft) S-SW 201 ? 0 min 96 W/m? 2,8 ?C 9,7 km/h (2 Bft)
25.04.2024 09:15 4,9 ?C 7,1 ?C 6,6 ?C 87 % 1004,1 hPa 0,0 l/m? 4,6 km/h (1 Bft) S 186 ? 0 min 106 W/m? 2,9 ?C 8,0 km/h (2 Bft)
25.04.2024 09:18 5,0 ?C 7,2 ?C 6,9 ?C 87 % 1004,1 hPa 0,0 l/m? 3,3 km/h (1 Bft) S-SO 148 ? 0 min 123 W/m? 3,0 ?C 6,4 km/h (2 Bft)
25.04.2024 09:21 5,1 ?C 7,8 ?C 7,2 ?C 87 % 1004,2 hPa 0,0 l/m? 4,3 km/h (1 Bft) S-SO 160 ? 0 min 120 W/m? 3,1 ?C 6,4 km/h (2 Bft)
25.04.2024 09:24 5,1 ?C 7,6 ?C 6,8 ?C 86 % 1004,2 hPa 0,0 l/m? 7,8 km/h (2 Bft) S-SO 162 ? 0 min 120 W/m? 3,0 ?C 12,9 km/h (3 Bft)
25.04.2024 09:27 5,1 ?C 7,4 ?C 6,9 ?C 86 % 1004,1 hPa 0,0 l/m? 7,2 km/h (2 Bft) S-SO 167 ? 0 min 117 W/m? 3,0 ?C 12,9 km/h (3 Bft)
25.04.2024 09:30 5,1 ?C 7,7 ?C 7,1 ?C 86 % 1004,2 hPa 0,0 l/m? 5,7 km/h (2 Bft) S 171 ? 0 min 116 W/m? 3,0 ?C 8,0 km/h (2 Bft)
25.04.2024 09:33 5,2 ?C 7,4 ?C 6,9 ?C 86 % 1004,1 hPa 0,0 l/m? 7,7 km/h (2 Bft) S 178 ? 0 min 111 W/m? 3,1 ?C 16,1 km/h (3 Bft)
25.04.2024 09:36 5,1 ?C 7,3 ?C 6,8 ?C 85 % 1004,1 hPa 0,0 l/m? 9,0 km/h (2 Bft) S-SO 168 ? 0 min 117 W/m? 2,8 ?C 16,1 km/h (3 Bft)
25.04.2024 09:39 5,1 ?C 7,7 ?C 7,1 ?C 85 % 1004,1 hPa 0,0 l/m? 7,2 km/h (2 Bft) S-SO 163 ? 0 min 143 W/m? 2,8 ?C 14,5 km/h (3 Bft)
25.04.2024 09:42 5,2 ?C 8,8 ?C 8,4 ?C 85 % 1004,1 hPa 0,0 l/m? 5,7 km/h (2 Bft) S 184 ? 0 min 200 W/m? 2,9 ?C 9,7 km/h (2 Bft)
25.04.2024 09:45 5,4 ?C 9,9 ?C 9,0 ?C 86 % 1004,0 hPa 0,0 l/m? 7,2 km/h (2 Bft) S-SO 156 ? 0 min 252 W/m? 3,3 ?C 12,9 km/h (3 Bft)
25.04.2024 09:48 5,6 ?C 10,6 ?C 9,2 ?C 85 % 1004,0 hPa 0,0 l/m? 9,7 km/h (2 Bft) S 170 ? 0 min 312 W/m? 3,3 ?C 14,5 km/h (3 Bft)
25.04.2024 09:51 5,8 ?C 10,1 ?C 8,2 ?C 84 % 1004,0 hPa 0,0 l/m? 9,1 km/h (2 Bft) S-SO 151 ? 0 min 248 W/m? 3,3 ?C 16,1 km/h (3 Bft)
25.04.2024 09:54 5,9 ?C 10,4 ?C 8,7 ?C 84 % 1004,0 hPa 0,0 l/m? 6,7 km/h (2 Bft) S 172 ? 0 min 247 W/m? 3,4 ?C 12,9 km/h (3 Bft)
25.04.2024 09:57 6,0 ?C 10,4 ?C 8,9 ?C 84 % 1004,0 hPa 0,0 l/m? 7,6 km/h (2 Bft) S-SO 165 ? 0 min 261 W/m? 3,5 ?C 12,9 km/h (3 Bft)
25.04.2024 10:00 6,2 ?C 14,8 ?C 11,7 ?C 84 % 1004,0 hPa 0,0 l/m? 7,3 km/h (2 Bft) S-SO 151 ? 3 min 469 W/m? 3,7 ?C 16,1 km/h (3 Bft)
25.04.2024 10:03 6,7 ?C 16,7 ?C 13,6 ?C 84 % 1004,0 hPa 0,0 l/m? 6,0 km/h (2 Bft) S 190 ? 3 min 362 W/m? 4,2 ?C 11,3 km/h (2 Bft)
25.04.2024 10:06 7,0 ?C 14,7 ?C 11,7 ?C 83 % 1004,0 hPa 0,0 l/m? 9,5 km/h (2 Bft) S-SW 203 ? 0 min 237 W/m? 4,3 ?C 19,3 km/h (3 Bft)
25.04.2024 10:09 6,7 ?C 11,5 ?C 9,1 ?C 81 % 1004,0 hPa 0,0 l/m? 12,9 km/h (3 Bft) SW 214 ? 0 min 180 W/m? 3,7 ?C 22,5 km/h (4 Bft)
25.04.2024 10:12 6,3 ?C 10,4 ?C 8,0 ?C 81 % 1004,0 hPa 0,0 l/m? 11,1 km/h (2 Bft) S-SW 200 ? 0 min 134 W/m? 3,3 ?C 19,3 km/h (3 Bft)
25.04.2024 10:15 6,2 ?C 9,7 ?C 7,9 ?C 81 % 1004,1 hPa 0,0 l/m? 9,0 km/h (2 Bft) S 186 ? 0 min 165 W/m? 3,2 ?C 16,1 km/h (3 Bft)
25.04.2024 10:18 6,2 ?C 10,7 ?C 9,6 ?C 82 % 1004,1 hPa 0,0 l/m? 7,5 km/h (2 Bft) S-SW 212 ? 0 min 220 W/m? 3,4 ?C 19,3 km/h (3 Bft)
25.04.2024 10:21 6,3 ?C 11,6 ?C 10,1 ?C 81 % 1004,0 hPa 0,0 l/m? 10,5 km/h (2 Bft) S-SW 193 ? 0 min 340 W/m? 3,3 ?C 19,3 km/h (3 Bft)
25.04.2024 10:24 6,6 ?C 12,2 ?C 9,9 ?C 81 % 1004,1 hPa 0,0 l/m? 9,7 km/h (2 Bft) S 181 ? 0 min 203 W/m? 3,6 ?C 17,7 km/h (3 Bft)
25.04.2024 10:27 6,6 ?C 10,8 ?C 8,9 ?C 80 % 1004,1 hPa 0,0 l/m? 9,9 km/h (2 Bft) S-SW 209 ? 0 min 157 W/m? 3,4 ?C 16,1 km/h (3 Bft)
25.04.2024 10:30 6,5 ?C 9,9 ?C 8,5 ?C 80 % 1004,1 hPa 0,0 l/m? 10,7 km/h (2 Bft) SW 227 ? 0 min 128 W/m? 3,3 ?C 19,3 km/h (3 Bft)
25.04.2024 10:33 6,4 ?C 9,6 ?C 8,4 ?C 80 % 1004,1 hPa 0,0 l/m? 7,2 km/h (2 Bft) S-SW 200 ? 0 min 144 W/m? 3,2 ?C 14,5 km/h (3 Bft)
_ Min-Zeit 06:12 05:21 05:30 13:45 04:57 - 19:00 - - - - 06:12 19:00
Minimum _ -0,6 ?C -0,4 ?C -0,9 ?C 44 % 1003,8 hPa - 0,0 km/h (0 Bft) - - - - -1,9 ?C 0,0 km/h (0 Bft)
_ Max-Zeit 11:36 12:57 11:39 07:24 11:00 21:45 14:09 - - 07:45 11:39 10:06 14:36
Maximum _ 11,3 ?C 18,6 ?C 20,1 ?C 92 % 1006,9 hPa 0,2 l/m? 13,8 km/h
SO (3 Bft)
- - 6 min 763 W/m? 4,3 ?C 22,5 km/h
S-SO (4 Bft)
Durchschnitt _ 5,8 ?C 7,2 ?C 7,7 ?C 73 % 1005,0 hPa #0,6 l/m? 3,4 km/h (1 Bft) O-SO - #45 min. 111 W/m? 0,8 ?C 6,6 km/h (2 Bft)